Time,TemperatureF,DewpointF,PressureIn,WindDirection,WindDirectionDegrees,WindSpeedMPH,WindSpeedGustMPH,Humidity,HourlyPrecipIn,Conditions,Clouds,dailyrainin,SoftwareType,DateUTC
2013-09-18 00:00:00,73.0,69.0,29.92,SSE,157,7.0,7.0,86,0.00,,,0.32,TxWx,2013-09-18 05:00:00,
2013-09-18 00:03:00,73.0,69.0,29.92,SSW,202,7.0,7.0,86,0.00,,,0.00,TxWx,2013-09-18 05:03:00,
2013-09-18 00:04:00,73.0,69.0,29.92,SE,135,5.0,5.0,87,0.00,,,0.00,TxWx,2013-09-18 05:04:00,
2013-09-18 00:05:00,73.0,69.0,29.92,South,180,8.0,8.0,87,0.00,,,0.00,TxWx,2013-09-18 05:05:00,
2013-09-18 00:06:00,73.0,69.0,29.92,South,180,3.0,3.0,87,0.00,,,0.00,TxWx,2013-09-18 05:06:00,
2013-09-18 00:08:00,73.0,69.0,29.92,South,180,6.0,7.0,87,0.00,,,0.00,TxWx,2013-09-18 05:08:00,
2013-09-18 00:09:00,73.0,69.0,29.92,SE,135,5.0,5.0,87,0.00,,,0.00,TxWx,2013-09-18 05:09:00,
2013-09-18 00:10:00,73.0,69.0,29.92,SE,135,4.0,4.0,87,0.00,,,0.00,TxWx,2013-09-18 05:10:00,
2013-09-18 00:11:00,73.0,69.0,29.93,SE,135,6.0,6.0,87,0.00,,,0.00,TxWx,2013-09-18 05:11:00,
2013-09-18 00:13:00,72.0,68.0,29.93,SE,135,13.0,14.0,88,0.00,,,0.04,TxWx,2013-09-18 05:13:00,
2013-09-18 00:14:00,72.0,68.0,29.93,SSE,157,5.0,6.0,88,0.00,,,0.06,TxWx,2013-09-18 05:14:00,
2013-09-18 00:15:00,71.0,68.0,29.93,South,180,10.0,10.0,89,0.00,,,0.10,TxWx,2013-09-18 05:15:00,
2013-09-18 00:17:00,71.0,68.0,29.92,SSE,157,10.0,10.0,90,0.00,,,0.11,TxWx,2013-09-18 05:17:00,
2013-09-18 00:18:00,71.0,68.0,29.92,SE,135,6.0,9.0,90,0.00,,,0.12,TxWx,2013-09-18 05:18:00,
2013-09-18 00:19:00,71.0,68.0,29.92,SSE,157,6.0,8.0,90,0.00,,,0.13,TxWx,2013-09-18 05:19:00,
2013-09-18 00:20:00,71.0,68.0,29.92,SSW,202,10.0,10.0,90,0.00,,,0.13,TxWx,2013-09-18 05:20:00,
2013-09-18 00:21:00,70.0,67.0,29.92,South,180,5.0,5.0,91,0.00,,,0.13,TxWx,2013-09-18 05:21:00,
2013-09-18 00:22:00,70.0,67.0,29.92,SSW,202,5.0,5.0,91,0.78,,,0.13,TxWx,2013-09-18 05:22:00,
2013-09-18 00:23:00,70.0,67.0,29.92,South,180,7.0,8.0,91,0.78,,,0.13,TxWx,2013-09-18 05:23:00,
2013-09-18 00:24:00,70.0,67.0,29.92,South,180,4.0,4.0,91,0.78,,,0.13,TxWx,2013-09-18 05:24:00,
2013-09-18 00:25:00,70.0,67.0,29.92,SSE,157,3.0,4.0,91,0.78,,,0.13,TxWx,2013-09-18 05:25:00,
2013-09-18 00:26:00,70.0,67.0,29.92,SSW,202,3.0,4.0,91,0.78,,,0.13,TxWx,2013-09-18 05:26:00,
2013-09-18 00:27:00,70.0,67.0,29.92,SSW,202,3.0,3.0,92,0.78,,,0.13,TxWx,2013-09-18 05:27:00,
2013-09-18 00:28:00,70.0,67.0,29.92,South,180,2.0,3.0,92,0.78,,,0.13,TxWx,2013-09-18 05:28:00,
2013-09-18 00:30:00,70.0,67.0,29.92,South,180,3.0,3.0,92,0.78,,,0.13,TxWx,2013-09-18 05:30:00,
2013-09-18 00:31:00,70.0,67.0,29.92,South,180,3.0,3.0,92,0.78,,,0.13,TxWx,2013-09-18 05:31:00,
2013-09-18 00:32:00,70.0,67.0,29.92,SSW,202,4.0,4.0,92,0.00,,,0.13,TxWx,2013-09-18 05:32:00,
2013-09-18 00:33:00,69.0,66.0,29.92,SSW,202,3.0,3.0,92,0.00,,,0.13,TxWx,2013-09-18 05:33:00,
2013-09-18 00:35:00,70.0,68.0,29.92,SSW,202,3.0,3.0,92,0.00,,,0.13,TxWx,2013-09-18 05:35:00,
2013-09-18 00:37:00,70.0,68.0,29.92,South,180,3.0,3.0,92,0.00,,,0.13,TxWx,2013-09-18 05:37:00,
2013-09-18 00:38:00,70.0,68.0,29.92,SSE,157,3.0,3.0,92,0.00,,,0.13,TxWx,2013-09-18 05:38:00,
2013-09-18 00:39:00,70.0,68.0,29.92,SSE,157,4.0,4.0,92,0.00,,,0.13,TxWx,2013-09-18 05:39:00,
2013-09-18 00:41:00,70.0,68.0,29.92,South,180,3.0,3.0,92,0.00,,,0.13,TxWx,2013-09-18 05:41:00,
2013-09-18 00:42:00,70.0,68.0,29.92,SSE,157,3.0,3.0,92,0.00,,,0.13,TxWx,2013-09-18 05:42:00,
2013-09-18 00:43:00,70.0,68.0,29.92,South,180,4.0,4.0,92,0.00,,,0.13,TxWx,2013-09-18 05:43:00,
2013-09-18 00:44:00,70.0,68.0,29.92,SSE,157,3.0,3.0,92,0.00,,,0.13,TxWx,2013-09-18 05:44:00,
2013-09-18 00:46:00,70.0,68.0,29.92,South,180,3.0,3.0,92,0.00,,,0.13,TxWx,2013-09-18 05:46:00,
2013-09-18 00:48:00,70.0,68.0,29.92,SSE,157,4.0,5.0,92,0.00,,,0.13,TxWx,2013-09-18 05:48:00,
2013-09-18 00:49:00,70.0,68.0,29.92,SSE,157,3.0,4.0,92,0.00,,,0.13,TxWx,2013-09-18 05:49:00,
2013-09-18 00:50:00,70.0,68.0,29.92,South,180,4.0,5.0,92,0.00,,,0.13,TxWx,2013-09-18 05:50:00,
2013-09-18 00:51:00,71.0,69.0,29.92,SSE,157,3.0,3.0,92,0.00,,,0.13,TxWx,2013-09-18 05:51:00,
2013-09-18 00:53:00,71.0,69.0,29.92,SSE,157,3.0,4.0,92,0.00,,,0.13,TxWx,2013-09-18 05:53:00,
2013-09-18 00:54:00,71.0,69.0,29.92,SSE,157,3.0,4.0,92,0.00,,,0.13,TxWx,2013-09-18 05:54:00,
2013-09-18 00:55:00,71.0,69.0,29.92,SE,135,3.0,3.0,92,0.00,,,0.13,TxWx,2013-09-18 05:55:00,
2013-09-18 00:56:00,71.0,69.0,29.92,SE,135,5.0,5.0,92,0.00,,,0.13,TxWx,2013-09-18 05:56:00,
2013-09-18 00:58:00,71.0,69.0,29.92,SSE,157,3.0,3.0,92,0.00,,,0.13,TxWx,2013-09-18 05:58:00,
2013-09-18 00:59:00,71.0,69.0,29.92,SSE,157,3.0,3.0,92,0.00,,,0.13,TxWx,2013-09-18 05:59:00,
2013-09-18 01:00:00,71.0,69.0,29.92,South,180,3.0,3.0,92,0.00,,,0.13,TxWx,2013-09-18 06:00:00,
2013-09-18 01:02:00,71.0,69.0,29.92,South,180,2.0,3.0,92,0.00,,,0.13,TxWx,2013-09-18 06:02:00,
2013-09-18 01:03:00,71.0,68.0,29.92,South,180,3.0,3.0,92,0.00,,,0.13,TxWx,2013-09-18 06:03:00,
2013-09-18 01:05:00,71.0,68.0,29.92,South,180,1.0,2.0,92,0.00,,,0.13,TxWx,2013-09-18 06:05:00,
2013-09-18 01:06:00,71.0,68.0,29.92,South,180,1.0,2.0,92,0.00,,,0.13,TxWx,2013-09-18 06:06:00,
2013-09-18 01:07:00,71.0,68.0,29.92,South,180,3.0,3.0,92,0.00,,,0.13,TxWx,2013-09-18 06:07:00,
2013-09-18 01:10:00,71.0,68.0,29.92,SSW,202,3.0,3.0,92,0.00,,,0.13,TxWx,2013-09-18 06:10:00,
2013-09-18 01:11:00,71.0,69.0,29.92,South,180,3.0,4.0,92,0.00,,,0.13,TxWx,2013-09-18 06:11:00,
2013-09-18 01:12:00,71.0,69.0,29.91,SSW,202,3.0,3.0,92,0.00,,,0.13,TxWx,2013-09-18 06:12:00,
2013-09-18 01:15:00,71.0,69.0,29.91,SSE,157,1.0,1.0,92,0.00,,,0.13,TxWx,2013-09-18 06:15:00,
2013-09-18 01:16:00,71.0,69.0,29.91,South,180,2.0,2.0,92,0.00,,,0.13,TxWx,2013-09-18 06:16:00,
2013-09-18 01:17:00,71.0,69.0,29.91,SSE,157,3.0,3.0,93,0.00,,,0.13,TxWx,2013-09-18 06:17:00,
2013-09-18 01:20:00,71.0,69.0,29.91,SE,135,3.0,3.0,93,0.00,,,0.13,TxWx,2013-09-18 06:20:00,
2013-09-18 01:21:00,71.0,69.0,29.92,SE,135,4.0,4.0,93,0.00,,,0.13,TxWx,2013-09-18 06:21:00,
2013-09-18 01:22:00,72.0,70.0,29.91,SSE,157,3.0,3.0,93,0.00,,,0.13,TxWx,2013-09-18 06:22:00,
2013-09-18 01:25:00,72.0,70.0,29.92,SSW,202,3.0,3.0,93,0.00,,,0.13,TxWx,2013-09-18 06:25:00,
2013-09-18 01:26:00,72.0,70.0,29.92,South,180,3.0,3.0,93,0.00,,,0.13,TxWx,2013-09-18 06:26:00,
2013-09-18 01:27:00,72.0,70.0,29.92,South,180,3.0,3.0,93,0.00,,,0.13,TxWx,2013-09-18 06:27:00,
2013-09-18 01:31:00,71.0,69.0,29.92,SSW,202,4.0,4.0,93,0.00,,,0.13,TxWx,2013-09-18 06:31:00,
2013-09-18 01:32:00,71.0,69.0,29.92,SW,225,3.0,3.0,93,0.00,,,0.13,TxWx,2013-09-18 06:32:00,
2013-09-18 01:36:00,72.0,70.0,29.92,SSE,157,2.0,2.0,93,0.00,,,0.13,TxWx,2013-09-18 06:36:00,
2013-09-18 01:37:00,72.0,70.0,29.91,SSW,202,1.0,2.0,94,0.00,,,0.13,TxWx,2013-09-18 06:37:00,
2013-09-18 01:41:00,72.0,70.0,29.92,SW,225,2.0,2.0,93,0.00,,,0.13,TxWx,2013-09-18 06:41:00,
2013-09-18 01:42:00,72.0,70.0,29.92,SW,225,2.0,2.0,93,0.00,,,0.13,TxWx,2013-09-18 06:42:00,
2013-09-18 01:44:00,72.0,70.0,29.92,SW,225,2.0,2.0,93,0.00,,,0.13,TxWx,2013-09-18 06:44:00,
2013-09-18 01:46:00,72.0,70.0,29.92,SSW,202,1.0,1.0,93,0.00,,,0.13,TxWx,2013-09-18 06:46:00,
2013-09-18 01:47:00,72.0,70.0,29.92,SSW,202,1.0,1.0,93,0.00,,,0.14,TxWx,2013-09-18 06:47:00,
2013-09-18 01:49:00,72.0,70.0,29.92,SW,225,1.0,1.0,94,0.00,,,0.14,TxWx,2013-09-18 06:49:00,
2013-09-18 01:51:00,72.0,70.0,29.91,SW,225,1.0,1.0,93,0.00,,,0.14,TxWx,2013-09-18 06:51:00,
2013-09-18 01:52:00,72.0,70.0,29.91,SSW,202,1.0,1.0,94,0.06,,,0.14,TxWx,2013-09-18 06:52:00,
2013-09-18 01:53:00,72.0,70.0,29.91,SW,225,1.0,1.0,94,0.06,,,0.14,TxWx,2013-09-18 06:53:00,
2013-09-18 01:54:00,72.0,70.0,29.91,SSW,202,1.0,2.0,94,0.06,,,0.14,TxWx,2013-09-18 06:54:00,
2013-09-18 01:57:00,72.0,70.0,29.91,SSE,157,1.0,1.0,94,0.06,,,0.14,TxWx,2013-09-18 06:57:00,
2013-09-18 01:58:00,72.0,70.0,29.91,SE,135,1.0,2.0,94,0.06,,,0.14,TxWx,2013-09-18 06:58:00,
2013-09-18 02:00:00,73.0,71.0,29.91,ESE,112,7.0,7.0,94,0.06,,,0.14,TxWx,2013-09-18 07:00:00,
2013-09-18 02:02:00,73.0,71.0,29.91,ESE,112,8.0,8.0,94,0.00,,,0.14,TxWx,2013-09-18 07:02:00,
2013-09-18 02:03:00,73.0,71.0,29.91,ESE,112,8.0,9.0,94,0.00,,,0.14,TxWx,2013-09-18 07:03:00,
2013-09-18 02:05:00,73.0,71.0,29.91,East,90,8.0,8.0,94,0.00,,,0.14,TxWx,2013-09-18 07:05:00,
2013-09-18 02:07:00,74.0,72.0,29.91,East,90,7.0,7.0,93,0.00,,,0.14,TxWx,2013-09-18 07:07:00,
2013-09-18 02:08:00,74.0,72.0,29.91,SE,135,8.0,11.0,93,0.00,,,0.14,TxWx,2013-09-18 07:08:00,
2013-09-18 02:09:00,74.0,72.0,29.91,East,90,6.0,7.0,93,0.00,,,0.14,TxWx,2013-09-18 07:09:00,
2013-09-18 02:10:00,74.0,72.0,29.91,SE,135,7.0,8.0,93,0.00,,,0.14,TxWx,2013-09-18 07:10:00,
2013-09-18 02:13:00,74.0,72.0,29.90,ESE,112,5.0,5.0,92,0.00,,,0.14,TxWx,2013-09-18 07:13:00,
2013-09-18 02:14:00,74.0,72.0,29.90,East,90,6.0,6.0,92,0.00,,,0.14,TxWx,2013-09-18 07:14:00,
2013-09-18 02:15:00,74.0,71.0,29.90,SE,135,9.0,9.0,92,0.00,,,0.14,TxWx,2013-09-18 07:15:00,
2013-09-18 02:18:00,74.0,71.0,29.90,ESE,112,8.0,8.0,92,0.00,,,0.14,TxWx,2013-09-18 07:18:00,
2013-09-18 02:19:00,74.0,71.0,29.90,East,90,10.0,10.0,91,0.00,,,0.14,TxWx,2013-09-18 07:19:00,
2013-09-18 02:21:00,74.0,71.0,29.90,SE,135,8.0,8.0,91,0.00,,,0.14,TxWx,2013-09-18 07:21:00,
2013-09-18 02:23:00,74.0,71.0,29.90,SE,135,9.0,9.0,91,0.00,,,0.14,TxWx,2013-09-18 07:23:00,
2013-09-18 02:24:00,74.0,71.0,29.90,ESE,112,9.0,9.0,91,0.00,,,0.14,TxWx,2013-09-18 07:24:00,
2013-09-18 02:25:00,74.0,71.0,29.90,ESE,112,9.0,9.0,91,0.00,,,0.14,TxWx,2013-09-18 07:25:00,
2013-09-18 02:26:00,74.0,71.0,29.90,East,90,10.0,11.0,91,0.00,,,0.14,TxWx,2013-09-18 07:26:00,
2013-09-18 02:28:00,74.0,71.0,29.90,ENE,67,10.0,10.0,91,0.00,,,0.14,TxWx,2013-09-18 07:28:00,
2013-09-18 02:29:00,74.0,71.0,29.90,ENE,67,7.0,7.0,91,0.00,,,0.14,TxWx,2013-09-18 07:29:00,
2013-09-18 02:30:00,74.0,71.0,29.90,ESE,112,6.0,6.0,91,0.00,,,0.14,TxWx,2013-09-18 07:30:00,
2013-09-18 02:31:00,74.0,71.0,29.90,ESE,112,13.0,14.0,91,0.00,,,0.14,TxWx,2013-09-18 07:31:00,
2013-09-18 02:33:00,74.0,71.0,29.90,East,90,11.0,11.0,90,0.00,,,0.14,TxWx,2013-09-18 07:33:00,
2013-09-18 02:34:00,74.0,71.0,29.90,East,90,8.0,8.0,90,0.00,,,0.14,TxWx,2013-09-18 07:34:00,
2013-09-18 02:35:00,75.0,72.0,29.90,ESE,112,8.0,8.0,91,0.00,,,0.14,TxWx,2013-09-18 07:35:00,
2013-09-18 02:36:00,75.0,72.0,29.90,ESE,112,8.0,8.0,91,0.00,,,0.14,TxWx,2013-09-18 07:36:00,
2013-09-18 02:38:00,75.0,72.0,29.90,ESE,112,10.0,10.0,91,0.00,,,0.14,TxWx,2013-09-18 07:38:00,
2013-09-18 02:39:00,75.0,72.0,29.90,SE,135,8.0,9.0,91,0.00,,,0.14,TxWx,2013-09-18 07:39:00,
2013-09-18 02:41:00,75.0,72.0,29.90,East,90,7.0,9.0,91,0.00,,,0.14,TxWx,2013-09-18 07:41:00,
2013-09-18 02:43:00,75.0,72.0,29.90,ESE,112,8.0,9.0,91,0.00,,,0.14,TxWx,2013-09-18 07:43:00,
2013-09-18 02:44:00,75.0,72.0,29.90,East,90,8.0,8.0,91,0.00,,,0.14,TxWx,2013-09-18 07:44:00,
2013-09-18 02:45:00,74.0,71.0,29.90,ENE,67,6.0,7.0,90,0.00,,,0.14,TxWx,2013-09-18 07:45:00,
2013-09-18 02:46:00,74.0,71.0,29.90,ESE,112,8.0,10.0,90,0.00,,,0.14,TxWx,2013-09-18 07:46:00,
2013-09-18 02:47:00,74.0,71.0,29.90,East,90,10.0,10.0,90,0.00,,,0.14,TxWx,2013-09-18 07:47:00,
2013-09-18 02:49:00,74.0,71.0,29.89,ESE,112,8.0,8.0,90,0.00,,,0.14,TxWx,2013-09-18 07:49:00,
2013-09-18 02:50:00,74.0,71.0,29.90,ESE,112,7.0,8.0,90,0.00,,,0.14,TxWx,2013-09-18 07:50:00,
2013-09-18 02:52:00,74.0,71.0,29.89,ESE,112,8.0,8.0,90,0.00,,,0.14,TxWx,2013-09-18 07:52:00,
2013-09-18 02:54:00,74.0,71.0,29.90,SE,135,6.0,7.0,89,0.00,,,0.14,TxWx,2013-09-18 07:54:00,
2013-09-18 02:55:00,74.0,71.0,29.89,ESE,112,5.0,6.0,89,0.00,,,0.14,TxWx,2013-09-18 07:55:00,
2013-09-18 02:57:00,74.0,71.0,29.89,SE,135,8.0,9.0,89,0.00,,,0.14,TxWx,2013-09-18 07:57:00,
2013-09-18 02:58:00,74.0,70.0,29.89,ESE,112,11.0,11.0,89,0.00,,,0.14,TxWx,2013-09-18 07:58:00,
2013-09-18 02:59:00,74.0,70.0,29.89,SE,135,5.0,6.0,89,0.00,,,0.14,TxWx,2013-09-18 07:59:00,
2013-09-18 03:00:00,74.0,70.0,29.89,SE,135,9.0,10.0,89,0.00,,,0.14,TxWx,2013-09-18 08:00:00,
2013-09-18 03:01:00,74.0,70.0,29.89,SE,135,7.0,8.0,89,0.00,,,0.14,TxWx,2013-09-18 08:01:00,
2013-09-18 03:02:00,74.0,70.0,29.89,SSE,157,7.0,7.0,89,0.00,,,0.14,TxWx,2013-09-18 08:02:00,
2013-09-18 03:03:00,75.0,72.0,29.89,ESE,112,6.0,6.0,89,0.00,,,0.14,TxWx,2013-09-18 08:03:00,
2013-09-18 03:05:00,75.0,72.0,29.89,ESE,112,8.0,8.0,89,0.00,,,0.14,TxWx,2013-09-18 08:05:00,
2013-09-18 03:06:00,75.0,72.0,29.89,SE,135,9.0,11.0,89,0.00,,,0.14,TxWx,2013-09-18 08:06:00,
2013-09-18 03:07:00,75.0,72.0,29.89,ESE,112,6.0,8.0,89,0.00,,,0.14,TxWx,2013-09-18 08:07:00,
2013-09-18 03:09:00,75.0,72.0,29.89,SE,135,9.0,9.0,89,0.00,,,0.14,TxWx,2013-09-18 08:09:00,
2013-09-18 03:10:00,75.0,72.0,29.89,SE,135,6.0,7.0,89,0.00,,,0.14,TxWx,2013-09-18 08:10:00,
2013-09-18 03:11:00,74.0,71.0,29.89,ESE,112,9.0,9.0,89,0.00,,,0.14,TxWx,2013-09-18 08:11:00,
2013-09-18 03:14:00,75.0,72.0,29.89,SE,135,8.0,8.0,89,0.00,,,0.14,TxWx,2013-09-18 08:14:00,
2013-09-18 03:15:00,75.0,72.0,29.89,SE,135,7.0,8.0,89,0.00,,,0.14,TxWx,2013-09-18 08:15:00,
2013-09-18 03:16:00,75.0,72.0,29.89,East,90,5.0,5.0,89,0.00,,,0.14,TxWx,2013-09-18 08:16:00,
2013-09-18 03:20:00,74.0,71.0,29.89,SE,135,8.0,9.0,89,0.00,,,0.14,TxWx,2013-09-18 08:20:00,
2013-09-18 03:21:00,74.0,71.0,29.89,ESE,112,8.0,8.0,89,0.00,,,0.14,TxWx,2013-09-18 08:21:00,
2013-09-18 03:22:00,74.0,71.0,29.89,ESE,112,8.0,8.0,89,0.00,,,0.14,TxWx,2013-09-18 08:22:00,
2013-09-18 03:25:00,74.0,71.0,29.89,SE,135,10.0,10.0,89,0.00,,,0.14,TxWx,2013-09-18 08:25:00,
2013-09-18 03:26:00,74.0,71.0,29.89,SE,135,8.0,8.0,89,0.00,,,0.14,TxWx,2013-09-18 08:26:00,
2013-09-18 03:27:00,75.0,72.0,29.89,SE,135,9.0,10.0,89,0.00,,,0.14,TxWx,2013-09-18 08:27:00,
2013-09-18 03:30:00,75.0,72.0,29.89,ESE,112,8.0,8.0,89,0.00,,,0.14,TxWx,2013-09-18 08:30:00,
2013-09-18 03:31:00,74.0,71.0,29.88,ESE,112,10.0,10.0,89,0.00,,,0.14,TxWx,2013-09-18 08:31:00,
2013-09-18 03:32:00,75.0,72.0,29.89,ESE,112,7.0,8.0,89,0.00,,,0.14,TxWx,2013-09-18 08:32:00,
2013-09-18 03:35:00,75.0,72.0,29.88,ESE,112,8.0,8.0,89,0.00,,,0.14,TxWx,2013-09-18 08:35:00,
2013-09-18 03:36:00,75.0,72.0,29.88,SE,135,9.0,9.0,89,0.00,,,0.14,TxWx,2013-09-18 08:36:00,
2013-09-18 03:37:00,75.0,72.0,29.88,ESE,112,7.0,8.0,89,0.00,,,0.14,TxWx,2013-09-18 08:37:00,
2013-09-18 03:41:00,75.0,72.0,29.88,ESE,112,7.0,8.0,90,0.00,,,0.14,TxWx,2013-09-18 08:41:00,
2013-09-18 03:42:00,75.0,72.0,29.88,ESE,112,10.0,10.0,90,0.00,,,0.14,TxWx,2013-09-18 08:42:00,
2013-09-18 03:43:00,75.0,72.0,29.88,SE,135,7.0,8.0,90,0.00,,,0.14,TxWx,2013-09-18 08:43:00,
2013-09-18 03:46:00,74.0,71.0,29.88,SE,135,10.0,10.0,90,0.00,,,0.14,TxWx,2013-09-18 08:46:00,
2013-09-18 03:47:00,74.0,71.0,29.88,ESE,112,7.0,8.0,89,0.00,,,0.14,TxWx,2013-09-18 08:47:00,
2013-09-18 03:48:00,74.0,71.0,29.88,SE,135,7.0,8.0,90,0.00,,,0.14,TxWx,2013-09-18 08:48:00,
2013-09-18 03:49:00,75.0,72.0,29.88,ESE,112,9.0,10.0,90,0.00,,,0.14,TxWx,2013-09-18 08:49:00,
2013-09-18 03:52:00,75.0,72.0,29.88,ESE,112,10.0,10.0,90,0.00,,,0.14,TxWx,2013-09-18 08:52:00,
2013-09-18 03:53:00,75.0,72.0,29.88,ESE,112,10.0,10.0,90,0.00,,,0.14,TxWx,2013-09-18 08:53:00,
2013-09-18 03:55:00,75.0,72.0,29.88,ESE,112,8.0,8.0,90,0.00,,,0.14,TxWx,2013-09-18 08:55:00,
2013-09-18 03:57:00,75.0,72.0,29.88,SE,135,6.0,6.0,90,0.00,,,0.14,TxWx,2013-09-18 08:57:00,
2013-09-18 03:58:00,75.0,72.0,29.88,SE,135,10.0,10.0,90,0.00,,,0.14,TxWx,2013-09-18 08:58:00,
2013-09-18 04:00:00,75.0,72.0,29.88,ESE,112,6.0,8.0,90,0.00,,,0.14,TxWx,2013-09-18 09:00:00,
2013-09-18 04:02:00,75.0,72.0,29.88,SE,135,8.0,8.0,90,0.00,,,0.14,TxWx,2013-09-18 09:02:00,
2013-09-18 04:03:00,75.0,72.0,29.88,ESE,112,8.0,8.0,90,0.00,,,0.14,TxWx,2013-09-18 09:03:00,
2013-09-18 04:05:00,75.0,72.0,29.88,East,90,7.0,7.0,90,0.00,,,0.14,TxWx,2013-09-18 09:05:00,
2013-09-18 04:07:00,75.0,72.0,29.88,ESE,112,9.0,10.0,90,0.00,,,0.14,TxWx,2013-09-18 09:07:00,
2013-09-18 04:08:00,74.0,72.0,29.88,SE,135,8.0,9.0,90,0.00,,,0.14,TxWx,2013-09-18 09:08:00,
2013-09-18 04:10:00,75.0,72.0,29.87,SE,135,10.0,10.0,90,0.00,,,0.14,TxWx,2013-09-18 09:10:00,
2013-09-18 04:12:00,75.0,72.0,29.87,ESE,112,8.0,9.0,90,0.00,,,0.14,TxWx,2013-09-18 09:12:00,
2013-09-18 04:13:00,75.0,72.0,29.87,ESE,112,8.0,8.0,90,0.00,,,0.14,TxWx,2013-09-18 09:13:00,
2013-09-18 04:14:00,75.0,72.0,29.87,SSE,157,8.0,8.0,90,0.00,,,0.14,TxWx,2013-09-18 09:14:00,
2013-09-18 04:15:00,75.0,72.0,29.87,East,90,10.0,10.0,90,0.00,,,0.14,TxWx,2013-09-18 09:15:00,
2013-09-18 04:17:00,75.0,72.0,29.87,SE,135,10.0,10.0,90,0.00,,,0.14,TxWx,2013-09-18 09:17:00,
2013-09-18 04:19:00,75.0,72.0,29.87,ESE,112,6.0,8.0,90,0.00,,,0.14,TxWx,2013-09-18 09:19:00,
2013-09-18 04:21:00,74.0,71.0,29.87,SE,135,6.0,6.0,90,0.00,,,0.14,TxWx,2013-09-18 09:21:00,
2013-09-18 04:23:00,75.0,72.0,29.87,ESE,112,7.0,8.0,90,0.00,,,0.14,TxWx,2013-09-18 09:23:00,
2013-09-18 04:24:00,74.0,71.0,29.87,SE,135,8.0,10.0,89,0.00,,,0.14,TxWx,2013-09-18 09:24:00,
2013-09-18 04:26:00,75.0,72.0,29.87,ESE,112,8.0,11.0,89,0.00,,,0.14,TxWx,2013-09-18 09:26:00,
2013-09-18 04:28:00,75.0,72.0,29.87,ESE,112,10.0,11.0,89,0.00,,,0.14,TxWx,2013-09-18 09:28:00,
2013-09-18 04:29:00,74.0,70.0,29.87,ESE,112,11.0,11.0,89,0.00,,,0.14,TxWx,2013-09-18 09:29:00,
2013-09-18 04:31:00,75.0,71.0,29.87,SE,135,6.0,8.0,89,0.00,,,0.14,TxWx,2013-09-18 09:31:00,
2013-09-18 04:33:00,75.0,71.0,29.87,ESE,112,10.0,11.0,89,0.00,,,0.14,TxWx,2013-09-18 09:33:00,
2013-09-18 04:34:00,75.0,71.0,29.87,ESE,112,8.0,8.0,88,0.00,,,0.14,TxWx,2013-09-18 09:34:00,
2013-09-18 04:36:00,75.0,71.0,29.87,ESE,112,8.0,8.0,88,0.00,,,0.14,TxWx,2013-09-18 09:36:00,
2013-09-18 04:38:00,75.0,71.0,29.87,ESE,112,10.0,10.0,88,0.00,,,0.14,TxWx,2013-09-18 09:38:00,
2013-09-18 04:39:00,75.0,71.0,29.87,SE,135,11.0,11.0,88,0.00,,,0.14,TxWx,2013-09-18 09:39:00,
2013-09-18 04:41:00,75.0,71.0,29.87,ESE,112,6.0,8.0,88,0.00,,,0.14,TxWx,2013-09-18 09:41:00,
2013-09-18 04:43:00,75.0,71.0,29.87,SE,135,6.0,8.0,88,0.00,,,0.14,TxWx,2013-09-18 09:43:00,
2013-09-18 04:44:00,75.0,71.0,29.87,SE,135,8.0,8.0,88,0.00,,,0.14,TxWx,2013-09-18 09:44:00,
2013-09-18 04:45:00,75.0,71.0,29.87,East,90,5.0,6.0,88,0.00,,,0.14,TxWx,2013-09-18 09:45:00,
2013-09-18 04:47:00,75.0,71.0,29.87,SSE,157,7.0,7.0,88,0.00,,,0.14,TxWx,2013-09-18 09:47:00,
2013-09-18 04:48:00,75.0,71.0,29.87,ESE,112,9.0,9.0,88,0.00,,,0.14,TxWx,2013-09-18 09:48:00,
2013-09-18 04:49:00,75.0,71.0,29.87,SE,135,12.0,13.0,88,0.00,,,0.14,TxWx,2013-09-18 09:49:00,
2013-09-18 04:50:00,75.0,71.0,29.87,ESE,112,13.0,13.0,88,0.00,,,0.14,TxWx,2013-09-18 09:50:00,
2013-09-18 04:52:00,75.0,71.0,29.87,ESE,112,13.0,13.0,88,0.00,,,0.14,TxWx,2013-09-18 09:52:00,
2013-09-18 04:53:00,75.0,71.0,29.87,ESE,112,10.0,10.0,88,0.00,,,0.14,TxWx,2013-09-18 09:53:00,
2013-09-18 04:55:00,75.0,71.0,29.87,SE,135,10.0,10.0,88,0.00,,,0.14,TxWx,2013-09-18 09:55:00,
2013-09-18 04:58:00,75.0,71.0,29.87,ESE,112,9.0,10.0,88,0.00,,,0.14,TxWx,2013-09-18 09:58:00,
2013-09-18 05:00:00,75.0,71.0,29.87,SE,135,10.0,10.0,88,0.00,,,0.14,TxWx,2013-09-18 10:00:00,
2013-09-18 05:03:00,74.0,70.0,29.86,ESE,112,13.0,14.0,88,0.00,,,0.14,TxWx,2013-09-18 10:03:00,
2013-09-18 05:05:00,75.0,71.0,29.87,East,90,12.0,12.0,88,0.00,,,0.14,TxWx,2013-09-18 10:05:00,
2013-09-18 05:08:00,74.0,70.0,29.86,ESE,112,10.0,12.0,88,0.00,,,0.14,TxWx,2013-09-18 10:08:00,
2013-09-18 05:11:00,74.0,70.0,29.87,ESE,112,13.0,13.0,87,0.00,,,0.14,TxWx,2013-09-18 10:11:00,
2013-09-18 05:13:00,74.0,70.0,29.86,ESE,112,11.0,11.0,87,0.00,,,0.14,TxWx,2013-09-18 10:13:00,
2013-09-18 05:14:00,74.0,70.0,29.86,ESE,112,10.0,11.0,86,0.00,,,0.14,TxWx,2013-09-18 10:14:00,
2013-09-18 05:16:00,74.0,70.0,29.86,ESE,112,13.0,14.0,86,0.00,,,0.14,TxWx,2013-09-18 10:16:00,
2013-09-18 05:18:00,75.0,70.0,29.86,SE,135,10.0,11.0,86,0.00,,,0.14,TxWx,2013-09-18 10:18:00,
2013-09-18 05:19:00,75.0,70.0,29.86,SE,135,9.0,10.0,86,0.00,,,0.14,TxWx,2013-09-18 10:19:00,
2013-09-18 05:21:00,75.0,70.0,29.86,SE,135,12.0,12.0,85,0.00,,,0.14,TxWx,2013-09-18 10:21:00,
2013-09-18 05:22:00,75.0,70.0,29.86,SE,135,10.0,12.0,85,0.00,,,0.14,TxWx,2013-09-18 10:22:00,
2013-09-18 05:24:00,75.0,70.0,29.86,SE,135,8.0,8.0,85,0.00,,,0.14,TxWx,2013-09-18 10:24:00,
2013-09-18 05:26:00,75.0,70.0,29.86,SE,135,8.0,8.0,86,0.00,,,0.14,TxWx,2013-09-18 10:26:00,
2013-09-18 05:27:00,74.0,69.0,29.86,SE,135,10.0,10.0,86,0.00,,,0.14,TxWx,2013-09-18 10:27:00,
2013-09-18 05:29:00,75.0,70.0,29.86,SE,135,11.0,11.0,85,0.00,,,0.14,TxWx,2013-09-18 10:29:00,
2013-09-18 05:30:00,75.0,70.0,29.86,ESE,112,10.0,11.0,86,0.00,,,0.14,TxWx,2013-09-18 10:30:00,
2013-09-18 05:32:00,75.0,70.0,29.86,ESE,112,11.0,12.0,86,0.00,,,0.14,TxWx,2013-09-18 10:32:00,
2013-09-18 05:34:00,75.0,70.0,29.86,ESE,112,8.0,8.0,86,0.00,,,0.14,TxWx,2013-09-18 10:34:00,
2013-09-18 05:35:00,75.0,70.0,29.86,SE,135,9.0,9.0,86,0.00,,,0.14,TxWx,2013-09-18 10:35:00,
2013-09-18 05:37:00,74.0,69.0,29.86,East,90,8.0,8.0,86,0.00,,,0.14,TxWx,2013-09-18 10:37:00,
2013-09-18 05:39:00,75.0,70.0,29.86,SE,135,10.0,10.0,86,0.00,,,0.14,TxWx,2013-09-18 10:39:00,
2013-09-18 05:40:00,75.0,70.0,29.86,SE,135,8.0,11.0,86,0.00,,,0.14,TxWx,2013-09-18 10:40:00,
2013-09-18 05:42:00,75.0,70.0,29.86,ESE,112,9.0,10.0,86,0.00,,,0.14,TxWx,2013-09-18 10:42:00,
2013-09-18 05:43:00,75.0,71.0,29.86,SE,135,11.0,11.0,86,0.00,,,0.14,TxWx,2013-09-18 10:43:00,
2013-09-18 05:44:00,75.0,71.0,29.86,ESE,112,9.0,10.0,86,0.00,,,0.14,TxWx,2013-09-18 10:44:00,
2013-09-18 05:45:00,75.0,71.0,29.86,SE,135,6.0,6.0,86,0.00,,,0.14,TxWx,2013-09-18 10:45:00,
2013-09-18 05:47:00,75.0,71.0,29.86,ESE,112,11.0,11.0,86,0.00,,,0.14,TxWx,2013-09-18 10:47:00,
2013-09-18 05:48:00,74.0,70.0,29.86,ESE,112,9.0,9.0,86,0.00,,,0.14,TxWx,2013-09-18 10:48:00,
2013-09-18 05:49:00,75.0,71.0,29.86,SE,135,7.0,7.0,86,0.00,,,0.14,TxWx,2013-09-18 10:49:00,
2013-09-18 05:51:00,75.0,71.0,29.86,ESE,112,9.0,10.0,86,0.00,,,0.14,TxWx,2013-09-18 10:51:00,
2013-09-18 05:52:00,75.0,71.0,29.86,East,90,6.0,10.0,86,0.00,,,0.14,TxWx,2013-09-18 10:52:00,
2013-09-18 05:53:00,75.0,71.0,29.86,ESE,112,11.0,12.0,86,0.00,,,0.14,TxWx,2013-09-18 10:53:00,
2013-09-18 05:54:00,75.0,71.0,29.86,SE,135,8.0,8.0,86,0.00,,,0.14,TxWx,2013-09-18 10:54:00,
2013-09-18 05:56:00,75.0,71.0,29.86,ESE,112,10.0,10.0,86,0.00,,,0.14,TxWx,2013-09-18 10:56:00,
2013-09-18 05:57:00,75.0,71.0,29.86,ESE,112,11.0,11.0,87,0.00,,,0.14,TxWx,2013-09-18 10:57:00,
2013-09-18 05:59:00,74.0,69.0,29.87,ESE,112,10.0,10.0,86,0.00,,,0.14,TxWx,2013-09-18 10:59:00,
2013-09-18 06:01:00,74.0,69.0,29.87,ESE,112,8.0,8.0,86,0.00,,,0.14,TxWx,2013-09-18 11:01:00,
2013-09-18 06:02:00,73.0,68.0,29.87,ESE,112,7.0,7.0,85,0.00,,,0.14,TxWx,2013-09-18 11:02:00,
2013-09-18 06:04:00,73.0,68.0,29.87,SE,135,13.0,13.0,85,0.00,,,0.14,TxWx,2013-09-18 11:04:00,
2013-09-18 06:05:00,73.0,68.0,29.87,SE,135,8.0,10.0,85,0.00,,,0.14,TxWx,2013-09-18 11:05:00,
2013-09-18 06:06:00,73.0,68.0,29.87,SE,135,8.0,9.0,85,0.00,,,0.14,TxWx,2013-09-18 11:06:00,
2013-09-18 06:08:00,73.0,68.0,29.87,SE,135,11.0,13.0,84,0.00,,,0.14,TxWx,2013-09-18 11:08:00,
2013-09-18 06:09:00,73.0,68.0,29.87,SE,135,10.0,10.0,84,0.00,,,0.14,TxWx,2013-09-18 11:09:00,
2013-09-18 06:10:00,73.0,68.0,29.87,East,90,9.0,10.0,83,0.00,,,0.14,TxWx,2013-09-18 11:10:00,
2013-09-18 06:11:00,73.0,67.0,29.87,ESE,112,10.0,10.0,83,0.00,,,0.14,TxWx,2013-09-18 11:11:00,
2013-09-18 06:13:00,73.0,67.0,29.87,ESE,112,10.0,11.0,83,0.00,,,0.14,TxWx,2013-09-18 11:13:00,
2013-09-18 06:15:00,73.0,67.0,29.87,ESE,112,6.0,6.0,83,0.00,,,0.14,TxWx,2013-09-18 11:15:00,
2013-09-18 06:16:00,73.0,68.0,29.87,ESE,112,13.0,13.0,83,0.00,,,0.14,TxWx,2013-09-18 11:16:00,
2013-09-18 06:18:00,73.0,68.0,29.87,ESE,112,13.0,13.0,83,0.00,,,0.14,TxWx,2013-09-18 11:18:00,
2013-09-18 06:20:00,73.0,67.0,29.87,ESE,112,8.0,10.0,83,0.00,,,0.14,TxWx,2013-09-18 11:20:00,
2013-09-18 06:21:00,73.0,67.0,29.87,ESE,112,13.0,13.0,83,0.00,,,0.14,TxWx,2013-09-18 11:21:00,
2013-09-18 06:23:00,73.0,67.0,29.87,East,90,6.0,6.0,83,0.00,,,0.14,TxWx,2013-09-18 11:23:00,
2013-09-18 06:25:00,73.0,67.0,29.87,East,90,13.0,14.0,83,0.00,,,0.14,TxWx,2013-09-18 11:25:00,
2013-09-18 06:26:00,73.0,68.0,29.87,ESE,112,12.0,13.0,83,0.00,,,0.14,TxWx,2013-09-18 11:26:00,
2013-09-18 06:29:00,73.0,68.0,29.87,SE,135,10.0,10.0,83,0.00,,,0.14,TxWx,2013-09-18 11:29:00,
2013-09-18 06:30:00,73.0,68.0,29.87,East,90,7.0,7.0,84,0.00,,,0.14,TxWx,2013-09-18 11:30:00,
2013-09-18 06:31:00,73.0,68.0,29.87,ESE,112,10.0,10.0,84,0.00,,,0.14,TxWx,2013-09-18 11:31:00,
2013-09-18 06:32:00,73.0,68.0,29.87,East,90,8.0,8.0,84,0.00,,,0.14,TxWx,2013-09-18 11:32:00,
2013-09-18 06:34:00,73.0,68.0,29.87,ESE,112,10.0,10.0,84,0.00,,,0.14,TxWx,2013-09-18 11:34:00,
2013-09-18 06:35:00,73.0,68.0,29.88,East,90,10.0,10.0,84,0.00,,,0.14,TxWx,2013-09-18 11:35:00,
2013-09-18 06:36:00,73.0,68.0,29.88,SE,135,6.0,7.0,84,0.00,,,0.14,TxWx,2013-09-18 11:36:00,
2013-09-18 06:38:00,73.0,68.0,29.88,ENE,67,5.0,5.0,84,0.00,,,0.14,TxWx,2013-09-18 11:38:00,
2013-09-18 06:39:00,73.0,68.0,29.87,ESE,112,8.0,8.0,84,0.00,,,0.14,TxWx,2013-09-18 11:39:00,
2013-09-18 06:41:00,73.0,68.0,29.87,ESE,112,7.0,8.0,85,0.00,,,0.14,TxWx,2013-09-18 11:41:00,
2013-09-18 06:42:00,73.0,68.0,29.87,SE,135,6.0,6.0,85,0.00,,,0.14,TxWx,2013-09-18 11:42:00,
2013-09-18 06:43:00,73.0,68.0,29.87,ESE,112,8.0,8.0,85,0.00,,,0.14,TxWx,2013-09-18 11:43:00,
2013-09-18 06:44:00,73.0,68.0,29.87,SE,135,6.0,6.0,85,0.00,,,0.14,TxWx,2013-09-18 11:44:00,
2013-09-18 06:46:00,74.0,69.0,29.87,East,90,5.0,5.0,86,0.00,,,0.14,TxWx,2013-09-18 11:46:00,
2013-09-18 06:47:00,74.0,69.0,29.87,East,90,6.0,7.0,86,0.00,,,0.14,TxWx,2013-09-18 11:47:00,
2013-09-18 06:48:00,73.0,68.0,29.87,ESE,112,10.0,11.0,85,0.00,,,0.14,TxWx,2013-09-18 11:48:00,
2013-09-18 06:49:00,74.0,69.0,29.87,ESE,112,5.0,6.0,85,0.00,,,0.14,TxWx,2013-09-18 11:49:00,
2013-09-18 06:51:00,74.0,69.0,29.87,ESE,112,8.0,8.0,84,0.00,,,0.14,TxWx,2013-09-18 11:51:00,
2013-09-18 06:52:00,74.0,69.0,29.87,SE,135,8.0,8.0,84,0.00,,,0.14,TxWx,2013-09-18 11:52:00,
2013-09-18 06:53:00,74.0,69.0,29.87,SE,135,8.0,8.0,84,0.00,,,0.14,TxWx,2013-09-18 11:53:00,
2013-09-18 06:55:00,74.0,69.0,29.88,East,90,10.0,11.0,84,0.00,,,0.14,TxWx,2013-09-18 11:55:00,
2013-09-18 06:57:00,74.0,68.0,29.87,ESE,112,6.0,8.0,83,0.00,,,0.14,TxWx,2013-09-18 11:57:00,
2013-09-18 06:59:00,74.0,68.0,29.87,ESE,112,7.0,8.0,83,0.00,,,0.14,TxWx,2013-09-18 11:59:00,
2013-09-18 07:00:00,74.0,68.0,29.87,ESE,112,6.0,7.0,83,0.00,,,0.14,TxWx,2013-09-18 12:00:00,
2013-09-18 07:02:00,74.0,68.0,29.87,ESE,112,6.0,6.0,83,0.00,,,0.14,TxWx,2013-09-18 12:02:00,
2013-09-18 07:03:00,74.0,68.0,29.87,ESE,112,10.0,11.0,83,0.00,,,0.14,TxWx,2013-09-18 12:03:00,
2013-09-18 07:04:00,74.0,68.0,29.87,ESE,112,5.0,6.0,83,0.00,,,0.14,TxWx,2013-09-18 12:04:00,
2013-09-18 07:05:00,74.0,68.0,29.87,SE,135,6.0,7.0,83,0.00,,,0.14,TxWx,2013-09-18 12:05:00,
2013-09-18 07:07:00,74.0,68.0,29.87,ESE,112,10.0,10.0,82,0.00,,,0.14,TxWx,2013-09-18 12:07:00,
2013-09-18 07:08:00,74.0,68.0,29.87,East,90,12.0,12.0,82,0.00,,,0.14,TxWx,2013-09-18 12:08:00,
2013-09-18 07:09:00,74.0,68.0,29.87,SE,135,10.0,10.0,82,0.00,,,0.14,TxWx,2013-09-18 12:09:00,
2013-09-18 07:10:00,74.0,68.0,29.87,East,90,11.0,11.0,82,0.00,,,0.14,TxWx,2013-09-18 12:10:00,
2013-09-18 07:12:00,74.0,68.0,29.88,SE,135,6.0,6.0,82,0.00,,,0.14,TxWx,2013-09-18 12:12:00,
2013-09-18 07:13:00,74.0,68.0,29.88,ESE,112,8.0,8.0,82,0.00,,,0.14,TxWx,2013-09-18 12:13:00,
2013-09-18 07:15:00,74.0,68.0,29.88,SE,135,8.0,10.0,82,0.00,,,0.14,TxWx,2013-09-18 12:15:00,
2013-09-18 07:17:00,74.0,68.0,29.88,East,90,10.0,10.0,83,0.00,,,0.14,TxWx,2013-09-18 12:17:00,
2013-09-18 07:18:00,75.0,69.0,29.88,ESE,112,8.0,8.0,83,0.00,,,0.14,TxWx,2013-09-18 12:18:00,
2013-09-18 07:20:00,74.0,68.0,29.88,SE,135,11.0,11.0,83,0.00,,,0.14,TxWx,2013-09-18 12:20:00,
2013-09-18 07:22:00,75.0,70.0,29.88,ESE,112,9.0,9.0,84,0.00,,,0.14,TxWx,2013-09-18 12:22:00,
2013-09-18 07:23:00,74.0,69.0,29.88,SE,135,8.0,9.0,84,0.00,,,0.14,TxWx,2013-09-18 12:23:00,
2013-09-18 07:26:00,75.0,70.0,29.88,East,90,6.0,10.0,85,0.00,,,0.14,TxWx,2013-09-18 12:26:00,
2013-09-18 07:27:00,75.0,70.0,29.88,ESE,112,10.0,10.0,85,0.00,,,0.14,TxWx,2013-09-18 12:27:00,
2013-09-18 07:28:00,75.0,70.0,29.88,ESE,112,6.0,6.0,85,0.00,,,0.14,TxWx,2013-09-18 12:28:00,
2013-09-18 07:31:00,75.0,71.0,29.89,ESE,112,11.0,11.0,86,0.00,,,0.14,TxWx,2013-09-18 12:31:00,
2013-09-18 07:32:00,74.0,70.0,29.89,SE,135,10.0,11.0,86,0.00,,,0.14,TxWx,2013-09-18 12:32:00,
2013-09-18 07:34:00,74.0,70.0,29.89,SE,135,12.0,13.0,86,0.00,,,0.14,TxWx,2013-09-18 12:34:00,
2013-09-18 07:36:00,74.0,70.0,29.89,SE,135,8.0,8.0,87,0.00,,,0.14,TxWx,2013-09-18 12:36:00,
2013-09-18 07:37:00,74.0,70.0,29.89,East,90,8.0,9.0,87,0.00,,,0.14,TxWx,2013-09-18 12:37:00,
2013-09-18 07:39:00,74.0,70.0,29.89,SE,135,7.0,7.0,87,0.00,,,0.14,TxWx,2013-09-18 12:39:00,
2013-09-18 07:41:00,74.0,70.0,29.89,ESE,112,10.0,10.0,87,0.00,,,0.14,TxWx,2013-09-18 12:41:00,
2013-09-18 07:42:00,74.0,70.0,29.89,SE,135,8.0,8.0,87,0.00,,,0.14,TxWx,2013-09-18 12:42:00,
2013-09-18 07:44:00,74.0,70.0,29.89,ESE,112,8.0,8.0,87,0.00,,,0.14,TxWx,2013-09-18 12:44:00,
2013-09-18 07:46:00,74.0,70.0,29.89,ESE,112,6.0,6.0,88,0.00,,,0.14,TxWx,2013-09-18 12:46:00,
2013-09-18 07:47:00,74.0,70.0,29.89,SE,135,6.0,6.0,88,0.00,,,0.14,TxWx,2013-09-18 12:47:00,
2013-09-18 07:49:00,74.0,70.0,29.89,ESE,112,8.0,8.0,88,0.00,,,0.14,TxWx,2013-09-18 12:49:00,
2013-09-18 07:51:00,74.0,70.0,29.89,ESE,112,10.0,10.0,88,0.00,,,0.14,TxWx,2013-09-18 12:51:00,
2013-09-18 07:52:00,74.0,70.0,29.89,ESE,112,9.0,9.0,88,0.00,,,0.14,TxWx,2013-09-18 12:52:00,
2013-09-18 07:54:00,74.0,70.0,29.89,ESE,112,6.0,6.0,88,0.00,,,0.14,TxWx,2013-09-18 12:54:00,
2013-09-18 07:56:00,74.0,70.0,29.89,ESE,112,0.0,0.0,88,0.00,,,0.14,TxWx,2013-09-18 12:56:00,
2013-09-18 07:57:00,74.0,70.0,29.89,ESE,112,0.0,0.0,87,0.00,,,0.14,TxWx,2013-09-18 12:57:00,
2013-09-18 07:58:00,74.0,70.0,29.89,SE,135,0.0,0.0,87,0.00,,,0.14,TxWx,2013-09-18 12:58:00,
2013-09-18 07:59:00,74.0,70.0,29.89,ESE,112,0.0,1.0,87,0.00,,,0.14,TxWx,2013-09-18 12:59:00,
2013-09-18 08:02:00,74.0,70.0,29.89,ESE,112,0.0,0.0,87,0.00,,,0.14,TxWx,2013-09-18 13:02:00,
2013-09-18 08:03:00,74.0,70.0,29.89,SE,135,0.0,0.0,87,0.00,,,0.14,TxWx,2013-09-18 13:03:00,
2013-09-18 08:05:00,74.0,70.0,29.90,SE,135,0.0,0.0,87,0.00,,,0.14,TxWx,2013-09-18 13:05:00,
2013-09-18 08:07:00,74.0,70.0,29.90,SE,135,0.0,0.0,87,0.00,,,0.14,TxWx,2013-09-18 13:07:00,
2013-09-18 08:08:00,74.0,70.0,29.90,East,90,0.0,0.0,86,0.00,,,0.14,TxWx,2013-09-18 13:08:00,
2013-09-18 08:10:00,74.0,70.0,29.90,SE,135,6.0,7.0,86,0.00,,,0.14,TxWx,2013-09-18 13:10:00,
2013-09-18 08:12:00,74.0,70.0,29.90,ESE,112,7.0,7.0,86,0.00,,,0.14,TxWx,2013-09-18 13:12:00,
2013-09-18 08:13:00,74.0,70.0,29.90,East,90,6.0,7.0,86,0.00,,,0.14,TxWx,2013-09-18 13:13:00,
2013-09-18 08:15:00,74.0,70.0,29.90,SE,135,7.0,7.0,86,0.00,,,0.14,TxWx,2013-09-18 13:15:00,
2013-09-18 08:17:00,74.0,69.0,29.90,ESE,112,10.0,10.0,86,0.00,,,0.14,TxWx,2013-09-18 13:17:00,
2013-09-18 08:18:00,74.0,69.0,29.90,SE,135,6.0,6.0,86,0.00,,,0.14,TxWx,2013-09-18 13:18:00,
2013-09-18 08:20:00,74.0,69.0,29.90,East,90,7.0,7.0,86,0.00,,,0.14,TxWx,2013-09-18 13:20:00,
2013-09-18 08:22:00,74.0,70.0,29.90,ESE,112,8.0,8.0,86,0.00,,,0.14,TxWx,2013-09-18 13:22:00,
2013-09-18 08:23:00,74.0,70.0,29.90,SE,135,9.0,9.0,86,0.00,,,0.14,TxWx,2013-09-18 13:23:00,
2013-09-18 08:25:00,75.0,71.0,29.90,East,90,8.0,8.0,86,0.00,,,0.14,TxWx,2013-09-18 13:25:00,
2013-09-18 08:27:00,74.0,70.0,29.90,SE,135,8.0,9.0,86,0.00,,,0.14,TxWx,2013-09-18 13:27:00,
2013-09-18 08:28:00,74.0,70.0,29.90,ESE,112,7.0,7.0,87,0.00,,,0.14,TxWx,2013-09-18 13:28:00,
2013-09-18 08:30:00,74.0,70.0,29.90,SE,135,9.0,9.0,86,0.00,,,0.14,TxWx,2013-09-18 13:30:00,
2013-09-18 08:32:00,74.0,70.0,29.90,SE,135,10.0,10.0,86,0.00,,,0.14,TxWx,2013-09-18 13:32:00,
2013-09-18 08:33:00,74.0,70.0,29.90,East,90,7.0,8.0,86,0.00,,,0.14,TxWx,2013-09-18 13:33:00,
2013-09-18 08:36:00,74.0,70.0,29.90,ESE,112,10.0,10.0,86,0.00,,,0.14,TxWx,2013-09-18 13:36:00,
2013-09-18 08:37:00,74.0,70.0,29.90,SE,135,10.0,10.0,86,0.00,,,0.14,TxWx,2013-09-18 13:37:00,
2013-09-18 08:39:00,74.0,70.0,29.90,ESE,112,8.0,8.0,86,0.00,,,0.14,TxWx,2013-09-18 13:39:00,
2013-09-18 08:42:00,74.0,70.0,29.90,ESE,112,9.0,9.0,86,0.00,,,0.14,TxWx,2013-09-18 13:42:00,
2013-09-18 08:43:00,75.0,71.0,29.90,ESE,112,7.0,7.0,86,0.00,,,0.14,TxWx,2013-09-18 13:43:00,
2013-09-18 08:44:00,75.0,71.0,29.90,SE,135,8.0,10.0,86,0.00,,,0.14,TxWx,2013-09-18 13:44:00,
2013-09-18 08:47:00,75.0,71.0,29.90,SE,135,10.0,10.0,86,0.00,,,0.14,TxWx,2013-09-18 13:47:00,
2013-09-18 08:48:00,75.0,71.0,29.90,ESE,112,11.0,11.0,86,0.00,,,0.14,TxWx,2013-09-18 13:48:00,
2013-09-18 08:49:00,75.0,71.0,29.90,SE,135,10.0,10.0,87,0.00,,,0.14,TxWx,2013-09-18 13:49:00,
2013-09-18 08:53:00,75.0,71.0,29.90,ESE,112,9.0,9.0,87,0.00,,,0.14,TxWx,2013-09-18 13:53:00,
2013-09-18 08:54:00,75.0,71.0,29.91,SE,135,8.0,10.0,87,0.00,,,0.14,TxWx,2013-09-18 13:54:00,
2013-09-18 08:58:00,75.0,71.0,29.91,East,90,10.0,10.0,87,0.00,,,0.14,TxWx,2013-09-18 13:58:00,
2013-09-18 08:59:00,75.0,71.0,29.91,SE,135,9.0,10.0,88,0.00,,,0.14,TxWx,2013-09-18 13:59:00,
2013-09-18 09:00:00,75.0,71.0,29.91,ESE,112,10.0,10.0,88,0.00,,,0.14,TxWx,2013-09-18 14:00:00,
2013-09-18 09:03:00,75.0,71.0,29.91,ESE,112,11.0,11.0,88,0.00,,,0.14,TxWx,2013-09-18 14:03:00,
2013-09-18 09:04:00,75.0,71.0,29.91,SE,135,11.0,11.0,88,0.00,,,0.14,TxWx,2013-09-18 14:04:00,
2013-09-18 09:05:00,75.0,71.0,29.91,ESE,112,8.0,8.0,88,0.00,,,0.14,TxWx,2013-09-18 14:05:00,
2013-09-18 09:08:00,75.0,71.0,29.91,ESE,112,10.0,11.0,88,0.00,,,0.14,TxWx,2013-09-18 14:08:00,
2013-09-18 09:09:00,75.0,71.0,29.91,ESE,112,8.0,10.0,88,0.00,,,0.14,TxWx,2013-09-18 14:09:00,
2013-09-18 09:10:00,74.0,70.0,29.91,East,90,11.0,11.0,87,0.00,,,0.14,TxWx,2013-09-18 14:10:00,
2013-09-18 09:13:00,75.0,71.0,29.91,SE,135,10.0,10.0,87,0.00,,,0.14,TxWx,2013-09-18 14:13:00,
2013-09-18 09:14:00,75.0,71.0,29.91,ESE,112,6.0,6.0,87,0.00,,,0.14,TxWx,2013-09-18 14:14:00,
2013-09-18 09:15:00,75.0,71.0,29.91,SE,135,8.0,9.0,87,0.00,,,0.14,TxWx,2013-09-18 14:15:00,
2013-09-18 09:18:00,75.0,71.0,29.91,SE,135,10.0,10.0,86,0.00,,,0.14,TxWx,2013-09-18 14:18:00,
2013-09-18 09:19:00,75.0,71.0,29.91,ENE,67,8.0,8.0,86,0.00,,,0.14,TxWx,2013-09-18 14:19:00,
2013-09-18 09:20:00,75.0,71.0,29.91,ESE,112,6.0,7.0,87,0.00,,,0.14,TxWx,2013-09-18 14:20:00,
2013-09-18 09:24:00,75.0,70.0,29.91,ESE,112,7.0,7.0,86,0.00,,,0.14,TxWx,2013-09-18 14:24:00,
2013-09-18 09:26:00,75.0,70.0,29.91,ESE,112,10.0,10.0,85,0.00,,,0.14,TxWx,2013-09-18 14:26:00,
2013-09-18 09:29:00,75.0,70.0,29.91,SE,135,6.0,6.0,85,0.00,,,0.14,TxWx,2013-09-18 14:29:00,
2013-09-18 09:31:00,75.0,70.0,29.91,ESE,112,8.0,8.0,85,0.00,,,0.14,TxWx,2013-09-18 14:31:00,
2013-09-18 09:34:00,75.0,70.0,29.91,ESE,112,11.0,11.0,85,0.00,,,0.14,TxWx,2013-09-18 14:34:00,
2013-09-18 09:35:00,75.0,70.0,29.91,ESE,112,8.0,8.0,85,0.00,,,0.14,TxWx,2013-09-18 14:35:00,
2013-09-18 09:36:00,75.0,70.0,29.92,SE,135,9.0,9.0,85,0.00,,,0.14,TxWx,2013-09-18 14:36:00,
2013-09-18 09:40:00,75.0,70.0,29.92,East,90,5.0,6.0,85,0.00,,,0.14,TxWx,2013-09-18 14:40:00,
2013-09-18 09:41:00,75.0,70.0,29.92,ESE,112,8.0,9.0,85,0.00,,,0.14,TxWx,2013-09-18 14:41:00,
2013-09-18 09:45:00,75.0,70.0,29.92,ESE,112,8.0,8.0,85,0.00,,,0.14,TxWx,2013-09-18 14:45:00,
2013-09-18 09:46:00,75.0,70.0,29.92,ESE,112,9.0,9.0,85,0.00,,,0.14,TxWx,2013-09-18 14:46:00,
2013-09-18 09:50:00,75.0,70.0,29.92,SE,135,9.0,10.0,85,0.00,,,0.14,TxWx,2013-09-18 14:50:00,
2013-09-18 09:52:00,75.0,70.0,29.92,ESE,112,9.0,9.0,85,0.00,,,0.14,TxWx,2013-09-18 14:52:00,
2013-09-18 09:55:00,75.0,70.0,29.92,SE,135,9.0,9.0,85,0.00,,,0.14,TxWx,2013-09-18 14:55:00,
2013-09-18 09:57:00,75.0,70.0,29.92,ESE,112,8.0,9.0,85,0.00,,,0.14,TxWx,2013-09-18 14:57:00,
2013-09-18 10:00:00,75.0,70.0,29.92,ESE,112,10.0,10.0,85,0.00,,,0.14,TxWx,2013-09-18 15:00:00,
2013-09-18 10:01:00,75.0,70.0,29.92,ESE,112,8.0,8.0,85,0.00,,,0.14,TxWx,2013-09-18 15:01:00,
2013-09-18 10:02:00,75.0,70.0,29.92,ESE,112,7.0,8.0,85,0.00,,,0.14,TxWx,2013-09-18 15:02:00,
2013-09-18 10:06:00,75.0,70.0,29.92,East,90,5.0,6.0,85,0.00,,,0.14,TxWx,2013-09-18 15:06:00,
2013-09-18 10:07:00,75.0,70.0,29.92,ESE,112,11.0,11.0,85,0.00,,,0.14,TxWx,2013-09-18 15:07:00,
2013-09-18 10:11:00,75.0,70.0,29.92,ESE,112,8.0,8.0,85,0.00,,,0.14,TxWx,2013-09-18 15:11:00,
2013-09-18 10:12:00,75.0,70.0,29.92,ESE,112,12.0,12.0,86,0.00,,,0.14,TxWx,2013-09-18 15:12:00,
2013-09-18 10:13:00,74.0,69.0,29.92,East,90,13.0,14.0,85,0.00,,,0.14,TxWx,2013-09-18 15:13:00,
2013-09-18 10:16:00,74.0,69.0,29.92,ESE,112,13.0,14.0,85,0.00,,,0.14,TxWx,2013-09-18 15:16:00,
2013-09-18 10:17:00,74.0,69.0,29.92,ESE,112,14.0,14.0,84,0.00,,,0.14,TxWx,2013-09-18 15:17:00,
2013-09-18 10:18:00,74.0,69.0,29.92,SE,135,9.0,11.0,84,0.00,,,0.14,TxWx,2013-09-18 15:18:00,
2013-09-18 10:21:00,74.0,68.0,29.92,ESE,112,14.0,14.0,83,0.00,,,0.14,TxWx,2013-09-18 15:21:00,
2013-09-18 10:22:00,74.0,68.0,29.92,ESE,112,9.0,9.0,83,0.00,,,0.14,TxWx,2013-09-18 15:22:00,
2013-09-18 10:24:00,74.0,69.0,29.93,SE,135,8.0,8.0,84,0.00,,,0.14,TxWx,2013-09-18 15:24:00,
2013-09-18 10:26:00,74.0,69.0,29.93,SE,135,11.0,11.0,84,0.00,,,0.14,TxWx,2013-09-18 15:26:00,
2013-09-18 10:27:00,74.0,69.0,29.93,East,90,11.0,14.0,84,0.00,,,0.14,TxWx,2013-09-18 15:27:00,
2013-09-18 10:29:00,74.0,68.0,29.93,SE,135,10.0,10.0,83,0.00,,,0.14,TxWx,2013-09-18 15:29:00,
2013-09-18 10:32:00,74.0,68.0,29.93,SE,135,6.0,6.0,82,0.00,,,0.14,TxWx,2013-09-18 15:32:00,
2013-09-18 10:35:00,74.0,68.0,29.93,ESE,112,8.0,8.0,82,0.00,,,0.14,TxWx,2013-09-18 15:35:00,
2013-09-18 10:37:00,74.0,68.0,29.93,ESE,112,5.0,5.0,82,0.00,,,0.14,TxWx,2013-09-18 15:37:00,
2013-09-18 10:40:00,74.0,68.0,29.93,SE,135,6.0,6.0,82,0.00,,,0.14,TxWx,2013-09-18 15:40:00,
2013-09-18 10:42:00,74.0,68.0,29.93,SE,135,5.0,6.0,82,0.00,,,0.14,TxWx,2013-09-18 15:42:00,
2013-09-18 10:45:00,75.0,69.0,29.93,ESE,112,9.0,9.0,83,0.00,,,0.14,TxWx,2013-09-18 15:45:00,
2013-09-18 10:47:00,75.0,70.0,29.93,ESE,112,8.0,8.0,84,0.00,,,0.14,TxWx,2013-09-18 15:47:00,
2013-09-18 10:48:00,75.0,70.0,29.93,ESE,112,7.0,7.0,84,0.00,,,0.14,TxWx,2013-09-18 15:48:00,
2013-09-18 10:50:00,75.0,70.0,29.93,SE,135,6.0,6.0,84,0.00,,,0.14,TxWx,2013-09-18 15:50:00,
2013-09-18 10:52:00,75.0,70.0,29.93,SE,135,5.0,6.0,85,0.00,,,0.14,TxWx,2013-09-18 15:52:00,
2013-09-18 10:53:00,75.0,70.0,29.93,SE,135,11.0,11.0,85,0.00,,,0.14,TxWx,2013-09-18 15:53:00,
2013-09-18 10:56:00,75.0,70.0,29.93,SE,135,8.0,8.0,86,0.00,,,0.14,TxWx,2013-09-18 15:56:00,
2013-09-18 10:57:00,75.0,71.0,29.93,ESE,112,6.0,8.0,86,0.00,,,0.14,TxWx,2013-09-18 15:57:00,
2013-09-18 10:58:00,75.0,71.0,29.93,East,90,8.0,9.0,86,0.00,,,0.14,TxWx,2013-09-18 15:58:00,
2013-09-18 11:01:00,75.0,71.0,29.93,ESE,112,8.0,10.0,87,0.00,,,0.14,TxWx,2013-09-18 16:01:00,
2013-09-18 11:03:00,74.0,69.0,29.93,SE,135,11.0,11.0,86,0.00,,,0.14,TxWx,2013-09-18 16:03:00,
2013-09-18 11:04:00,73.0,68.0,29.93,SE,135,8.0,8.0,85,0.00,,,0.14,TxWx,2013-09-18 16:04:00,
2013-09-18 11:07:00,72.0,67.0,29.93,SE,135,10.0,15.0,85,0.00,,,0.14,TxWx,2013-09-18 16:07:00,
2013-09-18 11:08:00,71.0,66.0,29.93,SE,135,10.0,10.0,86,0.00,,,0.15,TxWx,2013-09-18 16:08:00,
2013-09-18 11:09:00,70.0,65.0,29.93,SE,135,13.0,16.0,86,0.00,,,0.15,TxWx,2013-09-18 16:09:00,
2013-09-18 11:12:00,70.0,66.0,29.93,SE,135,10.0,10.0,88,0.12,,,0.16,TxWx,2013-09-18 16:12:00,
2013-09-18 11:13:00,70.0,66.0,29.93,SE,135,6.0,8.0,88,0.12,,,0.16,TxWx,2013-09-18 16:13:00,
2013-09-18 11:14:00,70.0,66.0,29.93,SE,135,6.0,6.0,89,0.12,,,0.16,TxWx,2013-09-18 16:14:00,
2013-09-18 11:17:00,70.0,67.0,29.93,SSE,157,8.0,8.0,90,0.12,,,0.16,TxWx,2013-09-18 16:17:00,
2013-09-18 11:18:00,70.0,67.0,29.93,ESE,112,12.0,13.0,90,0.12,,,0.16,TxWx,2013-09-18 16:18:00,
2013-09-18 11:19:00,70.0,67.0,29.93,SE,135,7.0,8.0,90,0.12,,,0.16,TxWx,2013-09-18 16:19:00,
2013-09-18 11:22:00,70.0,67.0,29.92,ESE,112,10.0,10.0,90,0.00,,,0.16,TxWx,2013-09-18 16:22:00,
2013-09-18 11:23:00,70.0,67.0,29.92,SE,135,6.0,8.0,90,0.00,,,0.16,TxWx,2013-09-18 16:23:00,
2013-09-18 11:24:00,70.0,67.0,29.92,SE,135,7.0,8.0,90,0.00,,,0.16,TxWx,2013-09-18 16:24:00,
2013-09-18 11:28:00,71.0,68.0,29.92,ESE,112,6.0,6.0,90,0.00,,,0.16,TxWx,2013-09-18 16:28:00,
2013-09-18 11:29:00,71.0,68.0,29.92,SE,135,5.0,6.0,90,0.00,,,0.16,TxWx,2013-09-18 16:29:00,
2013-09-18 11:33:00,71.0,67.0,29.92,SE,135,4.0,5.0,89,0.00,,,0.16,TxWx,2013-09-18 16:33:00,
2013-09-18 11:34:00,71.0,68.0,29.92,SE,135,4.0,4.0,89,0.00,,,0.16,TxWx,2013-09-18 16:34:00,
2013-09-18 11:35:00,72.0,69.0,29.92,ESE,112,5.0,5.0,89,0.00,,,0.16,TxWx,2013-09-18 16:35:00,
2013-09-18 11:38:00,72.0,68.0,29.92,ESE,112,8.0,8.0,89,0.00,,,0.16,TxWx,2013-09-18 16:38:00,
2013-09-18 11:39:00,72.0,68.0,29.92,SSE,157,5.0,6.0,89,0.00,,,0.16,TxWx,2013-09-18 16:39:00,
2013-09-18 11:42:00,72.0,68.0,29.92,ESE,112,11.0,11.0,89,0.00,,,0.16,TxWx,2013-09-18 16:42:00,
2013-09-18 11:43:00,72.0,68.0,29.92,ESE,112,10.0,10.0,88,0.00,,,0.16,TxWx,2013-09-18 16:43:00,
2013-09-18 11:44:00,73.0,69.0,29.92,East,90,8.0,8.0,87,0.00,,,0.16,TxWx,2013-09-18 16:44:00,
2013-09-18 11:47:00,72.0,67.0,29.92,ESE,112,8.0,9.0,85,0.00,,,0.16,TxWx,2013-09-18 16:47:00,
2013-09-18 11:49:00,73.0,68.0,29.92,SE,135,6.0,6.0,85,0.00,,,0.16,TxWx,2013-09-18 16:49:00,
2013-09-18 11:52:00,73.0,68.0,29.92,SE,135,8.0,8.0,85,0.00,,,0.16,TxWx,2013-09-18 16:52:00,
2013-09-18 11:54:00,73.0,68.0,29.92,SE,135,5.0,6.0,85,0.00,,,0.16,TxWx,2013-09-18 16:54:00,
2013-09-18 11:55:00,73.0,68.0,29.92,ESE,112,6.0,7.0,84,0.00,,,0.16,TxWx,2013-09-18 16:55:00,
2013-09-18 11:57:00,73.0,68.0,29.92,SE,135,5.0,5.0,84,0.00,,,0.16,TxWx,2013-09-18 16:57:00,
2013-09-18 11:59:00,74.0,69.0,29.91,SE,135,6.0,7.0,84,0.00,,,0.16,TxWx,2013-09-18 16:59:00,
2013-09-18 12:00:00,74.0,69.0,29.91,SE,135,6.0,6.0,85,0.00,,,0.16,TxWx,2013-09-18 17:00:00,
2013-09-18 12:02:00,73.0,68.0,29.91,SE,135,11.0,11.0,84,0.00,,,0.16,TxWx,2013-09-18 17:02:00,
2013-09-18 12:05:00,74.0,69.0,29.91,SE,135,7.0,7.0,84,0.00,,,0.16,TxWx,2013-09-18 17:05:00,
2013-09-18 12:08:00,74.0,69.0,29.91,SE,135,8.0,9.0,84,0.00,,,0.16,TxWx,2013-09-18 17:08:00,
2013-09-18 12:10:00,74.0,69.0,29.91,SE,135,8.0,8.0,84,0.00,,,0.16,TxWx,2013-09-18 17:10:00,
2013-09-18 12:11:00,74.0,69.0,29.91,SE,135,6.0,6.0,84,0.00,,,0.16,TxWx,2013-09-18 17:11:00,
2013-09-18 12:13:00,74.0,69.0,29.91,SSE,157,8.0,8.0,85,0.00,,,0.16,TxWx,2013-09-18 17:13:00,
2013-09-18 12:15:00,74.0,69.0,29.91,ESE,112,8.0,8.0,84,0.00,,,0.16,TxWx,2013-09-18 17:15:00,
2013-09-18 12:16:00,74.0,69.0,29.91,ESE,112,6.0,7.0,84,0.00,,,0.16,TxWx,2013-09-18 17:16:00,
2013-09-18 12:18:00,74.0,69.0,29.91,ESE,112,7.0,8.0,84,0.00,,,0.16,TxWx,2013-09-18 17:18:00,
2013-09-18 12:21:00,75.0,70.0,29.91,SE,135,11.0,11.0,85,0.00,,,0.16,TxWx,2013-09-18 17:21:00,
2013-09-18 12:23:00,75.0,70.0,29.90,ESE,112,11.0,12.0,84,0.00,,,0.16,TxWx,2013-09-18 17:23:00,
2013-09-18 12:26:00,75.0,70.0,29.91,SE,135,8.0,8.0,85,0.00,,,0.16,TxWx,2013-09-18 17:26:00,
2013-09-18 12:29:00,75.0,70.0,29.90,SE,135,5.0,5.0,85,0.00,,,0.16,TxWx,2013-09-18 17:29:00,
2013-09-18 12:31:00,76.0,71.0,29.91,SE,135,6.0,6.0,84,0.00,,,0.16,TxWx,2013-09-18 17:31:00,
2013-09-18 12:34:00,76.0,71.0,29.90,SE,135,12.0,12.0,84,0.00,,,0.16,TxWx,2013-09-18 17:34:00,
2013-09-18 12:36:00,76.0,70.0,29.90,ESE,112,13.0,13.0,83,0.00,,,0.16,TxWx,2013-09-18 17:36:00,
2013-09-18 12:39:00,76.0,70.0,29.90,SE,135,7.0,9.0,83,0.00,,,0.16,TxWx,2013-09-18 17:39:00,
2013-09-18 12:41:00,76.0,70.0,29.90,East,90,11.0,11.0,83,0.00,,,0.16,TxWx,2013-09-18 17:41:00,
2013-09-18 12:44:00,76.0,70.0,29.90,ENE,67,6.0,8.0,83,0.00,,,0.16,TxWx,2013-09-18 17:44:00,
2013-09-18 12:46:00,76.0,70.0,29.90,SE,135,11.0,13.0,82,0.00,,,0.16,TxWx,2013-09-18 17:46:00,
2013-09-18 12:49:00,76.0,70.0,29.90,SE,135,8.0,10.0,82,0.00,,,0.16,TxWx,2013-09-18 17:49:00,
2013-09-18 12:51:00,76.0,70.0,29.90,ESE,112,15.0,16.0,83,0.00,,,0.16,TxWx,2013-09-18 17:51:00,
2013-09-18 12:52:00,76.0,70.0,29.90,East,90,11.0,14.0,83,0.00,,,0.16,TxWx,2013-09-18 17:52:00,
2013-09-18 12:54:00,76.0,70.0,29.90,East,90,13.0,13.0,82,0.00,,,0.16,TxWx,2013-09-18 17:54:00,
2013-09-18 12:57:00,76.0,70.0,29.90,SE,135,14.0,14.0,82,0.00,,,0.16,TxWx,2013-09-18 17:57:00,
2013-09-18 13:00:00,76.0,70.0,29.90,ESE,112,10.0,11.0,83,0.00,,,0.16,TxWx,2013-09-18 18:00:00,
2013-09-18 13:02:00,76.0,70.0,29.90,SE,135,9.0,10.0,83,0.00,,,0.16,TxWx,2013-09-18 18:02:00,
2013-09-18 13:05:00,76.0,70.0,29.90,SE,135,11.0,11.0,83,0.00,,,0.16,TxWx,2013-09-18 18:05:00,
2013-09-18 13:07:00,76.0,70.0,29.90,ESE,112,12.0,12.0,83,0.00,,,0.16,TxWx,2013-09-18 18:07:00,
2013-09-18 13:10:00,76.0,70.0,29.90,SE,135,12.0,13.0,83,0.00,,,0.16,TxWx,2013-09-18 18:10:00,
2013-09-18 13:12:00,76.0,70.0,29.90,ESE,112,11.0,11.0,83,0.00,,,0.16,TxWx,2013-09-18 18:12:00,
2013-09-18 13:16:00,76.0,70.0,29.90,ESE,112,9.0,11.0,83,0.00,,,0.16,TxWx,2013-09-18 18:16:00,
2013-09-18 13:17:00,76.0,70.0,29.89,ESE,112,13.0,13.0,83,0.00,,,0.16,TxWx,2013-09-18 18:17:00,
2013-09-18 13:18:00,76.0,70.0,29.89,East,90,13.0,13.0,83,0.00,,,0.16,TxWx,2013-09-18 18:18:00,
2013-09-18 13:21:00,76.0,71.0,29.89,SE,135,9.0,9.0,84,0.00,,,0.16,TxWx,2013-09-18 18:21:00,
2013-09-18 13:22:00,76.0,71.0,29.89,ESE,112,10.0,12.0,84,0.00,,,0.16,TxWx,2013-09-18 18:22:00,
2013-09-18 13:23:00,76.0,71.0,29.89,East,90,6.0,8.0,84,0.00,,,0.16,TxWx,2013-09-18 18:23:00,
2013-09-18 13:26:00,76.0,71.0,29.89,ESE,112,12.0,12.0,84,0.00,,,0.16,TxWx,2013-09-18 18:26:00,
2013-09-18 13:27:00,76.0,71.0,29.88,SE,135,11.0,11.0,85,0.00,,,0.16,TxWx,2013-09-18 18:27:00,
2013-09-18 13:28:00,75.0,71.0,29.88,ESE,112,11.0,11.0,85,0.00,,,0.16,TxWx,2013-09-18 18:28:00,
2013-09-18 13:32:00,76.0,71.0,29.88,ESE,112,8.0,8.0,85,0.00,,,0.16,TxWx,2013-09-18 18:32:00,
2013-09-18 13:33:00,75.0,70.0,29.88,ENE,67,8.0,8.0,85,0.00,,,0.16,TxWx,2013-09-18 18:33:00,
2013-09-18 13:37:00,75.0,70.0,29.88,ESE,112,10.0,11.0,85,0.00,,,0.16,TxWx,2013-09-18 18:37:00,
2013-09-18 13:38:00,75.0,70.0,29.88,ESE,112,10.0,10.0,85,0.00,,,0.16,TxWx,2013-09-18 18:38:00,
2013-09-18 13:42:00,75.0,70.0,29.89,SE,135,10.0,10.0,85,0.00,,,0.16,TxWx,2013-09-18 18:42:00,
2013-09-18 13:43:00,75.0,70.0,29.88,East,90,5.0,6.0,85,0.00,,,0.16,TxWx,2013-09-18 18:43:00,
2013-09-18 13:48:00,75.0,70.0,29.88,ESE,112,11.0,11.0,85,0.00,,,0.16,TxWx,2013-09-18 18:48:00,
2013-09-18 13:53:00,75.0,70.0,29.88,ESE,112,13.0,13.0,85,0.00,,,0.16,TxWx,2013-09-18 18:53:00,
2013-09-18 13:58:00,75.0,70.0,29.88,ESE,112,14.0,14.0,85,0.00,,,0.16,TxWx,2013-09-18 18:58:00,
2013-09-18 13:59:00,76.0,71.0,29.88,ESE,112,7.0,7.0,85,0.00,,,0.16,TxWx,2013-09-18 18:59:00,
2013-09-18 14:03:00,76.0,71.0,29.88,ESE,112,12.0,13.0,86,0.00,,,0.16,TxWx,2013-09-18 19:03:00,
2013-09-18 14:04:00,76.0,71.0,29.88,SE,135,8.0,9.0,86,0.00,,,0.16,TxWx,2013-09-18 19:04:00,
2013-09-18 14:08:00,76.0,71.0,29.88,ESE,112,8.0,9.0,86,0.00,,,0.16,TxWx,2013-09-18 19:08:00,
2013-09-18 14:09:00,76.0,71.0,29.88,SE,135,11.0,11.0,86,0.00,,,0.16,TxWx,2013-09-18 19:09:00,
2013-09-18 14:10:00,76.0,71.0,29.88,ESE,112,10.0,10.0,86,0.00,,,0.16,TxWx,2013-09-18 19:10:00,
2013-09-18 14:13:00,76.0,71.0,29.88,East,90,11.0,12.0,86,0.00,,,0.16,TxWx,2013-09-18 19:13:00,
2013-09-18 14:14:00,76.0,71.0,29.88,ESE,112,8.0,10.0,86,0.00,,,0.16,TxWx,2013-09-18 19:14:00,
2013-09-18 14:16:00,75.0,70.0,29.88,ESE,112,11.0,11.0,86,0.00,,,0.16,TxWx,2013-09-18 19:16:00,
2013-09-18 14:19:00,75.0,70.0,29.88,ESE,112,13.0,13.0,85,0.00,,,0.16,TxWx,2013-09-18 19:19:00,
2013-09-18 14:21:00,74.0,69.0,29.88,East,90,15.0,17.0,84,0.00,,,0.16,TxWx,2013-09-18 19:21:00,
2013-09-18 14:24:00,74.0,69.0,29.88,East,90,10.0,13.0,85,0.00,,,0.16,TxWx,2013-09-18 19:24:00,
2013-09-18 14:26:00,72.0,67.0,29.88,East,90,13.0,13.0,85,0.00,,,0.18,TxWx,2013-09-18 19:26:00,
2013-09-18 14:29:00,72.0,68.0,29.87,East,90,10.0,11.0,88,0.00,,,0.19,TxWx,2013-09-18 19:29:00,
2013-09-18 14:31:00,72.0,68.0,29.88,NE,45,7.0,7.0,88,0.00,,,0.19,TxWx,2013-09-18 19:31:00,
2013-09-18 14:34:00,73.0,70.0,29.87,ESE,112,10.0,10.0,89,0.18,,,0.19,TxWx,2013-09-18 19:34:00,
2013-09-18 14:35:00,73.0,70.0,29.87,ESE,112,11.0,11.0,89,0.18,,,0.19,TxWx,2013-09-18 19:35:00,
2013-09-18 14:36:00,73.0,70.0,29.87,ESE,112,8.0,8.0,90,0.18,,,0.19,TxWx,2013-09-18 19:36:00,
2013-09-18 14:40:00,73.0,70.0,29.87,East,90,10.0,10.0,90,0.18,,,0.19,TxWx,2013-09-18 19:40:00,
2013-09-18 14:41:00,74.0,71.0,29.87,East,90,9.0,9.0,89,0.18,,,0.19,TxWx,2013-09-18 19:41:00,
2013-09-18 14:45:00,74.0,70.0,29.87,ESE,112,11.0,11.0,89,0.00,,,0.19,TxWx,2013-09-18 19:45:00,
2013-09-18 14:46:00,74.0,70.0,29.87,ESE,112,11.0,13.0,88,0.00,,,0.19,TxWx,2013-09-18 19:46:00,
2013-09-18 14:50:00,75.0,71.0,29.87,SE,135,8.0,8.0,88,0.00,,,0.19,TxWx,2013-09-18 19:50:00,
2013-09-18 14:51:00,75.0,71.0,29.87,East,90,9.0,9.0,89,0.00,,,0.19,TxWx,2013-09-18 19:51:00,
2013-09-18 14:55:00,75.0,71.0,29.87,ESE,112,9.0,10.0,88,0.00,,,0.19,TxWx,2013-09-18 19:55:00,
2013-09-18 14:56:00,75.0,71.0,29.87,ESE,112,10.0,13.0,88,0.00,,,0.19,TxWx,2013-09-18 19:56:00,
2013-09-18 15:00:00,75.0,71.0,29.86,ESE,112,7.0,7.0,88,0.00,,,0.19,TxWx,2013-09-18 20:00:00,
2013-09-18 15:01:00,75.0,71.0,29.86,ESE,112,10.0,10.0,88,0.00,,,0.19,TxWx,2013-09-18 20:01:00,
2013-09-18 15:06:00,75.0,71.0,29.86,East,90,10.0,10.0,86,0.00,,,0.19,TxWx,2013-09-18 20:06:00,
2013-09-18 15:07:00,75.0,70.0,29.86,ESE,112,11.0,11.0,86,0.00,,,0.19,TxWx,2013-09-18 20:07:00,
2013-09-18 15:12:00,76.0,71.0,29.86,ESE,112,10.0,11.0,85,0.00,,,0.19,TxWx,2013-09-18 20:12:00,
2013-09-18 15:13:00,76.0,71.0,29.86,East,90,8.0,9.0,85,0.00,,,0.19,TxWx,2013-09-18 20:13:00,
2013-09-18 15:17:00,76.0,71.0,29.86,ESE,112,11.0,11.0,84,0.00,,,0.19,TxWx,2013-09-18 20:17:00,
2013-09-18 15:18:00,76.0,71.0,29.86,ESE,112,14.0,14.0,84,0.00,,,0.19,TxWx,2013-09-18 20:18:00,
2013-09-18 15:22:00,76.0,71.0,29.85,ESE,112,14.0,15.0,84,0.00,,,0.19,TxWx,2013-09-18 20:22:00,
2013-09-18 15:23:00,76.0,71.0,29.86,ESE,112,12.0,13.0,84,0.00,,,0.19,TxWx,2013-09-18 20:23:00,
2013-09-18 15:27:00,76.0,71.0,29.85,ESE,112,15.0,15.0,84,0.00,,,0.19,TxWx,2013-09-18 20:27:00,
2013-09-18 15:28:00,76.0,71.0,29.85,SE,135,9.0,12.0,84,0.00,,,0.19,TxWx,2013-09-18 20:28:00,
2013-09-18 15:32:00,76.0,71.0,29.85,East,90,8.0,10.0,85,0.00,,,0.19,TxWx,2013-09-18 20:32:00,
2013-09-18 15:33:00,76.0,71.0,29.85,East,90,8.0,10.0,85,0.00,,,0.19,TxWx,2013-09-18 20:33:00,
2013-09-18 15:38:00,76.0,71.0,29.85,ESE,112,13.0,13.0,84,0.00,,,0.19,TxWx,2013-09-18 20:38:00,
2013-09-18 15:43:00,76.0,70.0,29.84,ESE,112,14.0,14.0,82,0.00,,,0.19,TxWx,2013-09-18 20:43:00,
2013-09-18 15:44:00,76.0,70.0,29.84,SE,135,13.0,14.0,82,0.00,,,0.19,TxWx,2013-09-18 20:44:00,
2013-09-18 15:48:00,76.0,70.0,29.84,ESE,112,13.0,16.0,82,0.00,,,0.19,TxWx,2013-09-18 20:48:00,
2013-09-18 15:49:00,76.0,70.0,29.84,ESE,112,9.0,11.0,82,0.00,,,0.19,TxWx,2013-09-18 20:49:00,
2013-09-18 15:53:00,76.0,70.0,29.84,ESE,112,13.0,14.0,82,0.00,,,0.19,TxWx,2013-09-18 20:53:00,
2013-09-18 15:54:00,76.0,70.0,29.84,ESE,112,17.0,18.0,82,0.00,,,0.19,TxWx,2013-09-18 20:54:00,
2013-09-18 15:59:00,76.0,70.0,29.84,SE,135,11.0,12.0,81,0.00,,,0.19,TxWx,2013-09-18 20:59:00,
2013-09-18 16:04:00,76.0,70.0,29.84,ESE,112,10.0,13.0,82,0.00,,,0.19,TxWx,2013-09-18 21:04:00,
2013-09-18 16:09:00,76.0,70.0,29.84,ESE,112,11.0,11.0,82,0.00,,,0.19,TxWx,2013-09-18 21:09:00,
2013-09-18 16:14:00,76.0,70.0,29.84,ESE,112,8.0,9.0,82,0.00,,,0.19,TxWx,2013-09-18 21:14:00,
2013-09-18 16:15:00,77.0,71.0,29.84,East,90,10.0,11.0,83,0.00,,,0.19,TxWx,2013-09-18 21:15:00,
2013-09-18 16:20:00,77.0,71.0,29.84,SE,135,8.0,10.0,83,0.00,,,0.19,TxWx,2013-09-18 21:20:00,
2013-09-18 16:21:00,76.0,70.0,29.84,East,90,15.0,16.0,83,0.00,,,0.19,TxWx,2013-09-18 21:21:00,
2013-09-18 16:25:00,75.0,70.0,29.84,ESE,112,14.0,16.0,84,0.00,,,0.19,TxWx,2013-09-18 21:25:00,
2013-09-18 16:26:00,75.0,70.0,29.84,ESE,112,10.0,10.0,84,0.00,,,0.19,TxWx,2013-09-18 21:26:00,
2013-09-18 16:30:00,76.0,71.0,29.84,SE,135,17.0,19.0,84,0.00,,,0.19,TxWx,2013-09-18 21:30:00,
2013-09-18 16:31:00,75.0,70.0,29.83,ESE,112,16.0,16.0,84,0.00,,,0.19,TxWx,2013-09-18 21:31:00,
2013-09-18 16:35:00,75.0,69.0,29.83,ESE,112,13.0,14.0,83,0.00,,,0.19,TxWx,2013-09-18 21:35:00,
2013-09-18 16:36:00,76.0,70.0,29.83,ESE,112,10.0,10.0,83,0.00,,,0.19,TxWx,2013-09-18 21:36:00,
2013-09-18 16:40:00,76.0,71.0,29.83,East,90,10.0,12.0,84,0.00,,,0.19,TxWx,2013-09-18 21:40:00,
2013-09-18 16:41:00,76.0,71.0,29.83,ESE,112,10.0,11.0,84,0.00,,,0.19,TxWx,2013-09-18 21:41:00,
2013-09-18 16:46:00,76.0,71.0,29.83,ESE,112,9.0,11.0,84,0.00,,,0.19,TxWx,2013-09-18 21:46:00,
2013-09-18 16:47:00,76.0,71.0,29.83,ESE,112,9.0,10.0,84,0.00,,,0.19,TxWx,2013-09-18 21:47:00,
2013-09-18 16:51:00,76.0,70.0,29.84,ESE,112,11.0,14.0,83,0.00,,,0.19,TxWx,2013-09-18 21:51:00,
2013-09-18 16:52:00,76.0,70.0,29.84,ESE,112,14.0,16.0,83,0.00,,,0.19,TxWx,2013-09-18 21:52:00,
2013-09-18 16:56:00,76.0,70.0,29.84,East,90,9.0,13.0,82,0.00,,,0.19,TxWx,2013-09-18 21:56:00,
2013-09-18 16:57:00,76.0,70.0,29.84,SE,135,13.0,13.0,82,0.00,,,0.19,TxWx,2013-09-18 21:57:00,
2013-09-18 16:58:00,76.0,70.0,29.84,ESE,112,13.0,13.0,82,0.00,,,0.19,TxWx,2013-09-18 21:58:00,
2013-09-18 17:01:00,76.0,70.0,29.84,SE,135,14.0,14.0,82,0.00,,,0.19,TxWx,2013-09-18 22:01:00,
2013-09-18 17:02:00,76.0,70.0,29.84,ESE,112,14.0,14.0,82,0.00,,,0.19,TxWx,2013-09-18 22:02:00,
2013-09-18 17:03:00,76.0,70.0,29.84,SE,135,12.0,12.0,82,0.00,,,0.19,TxWx,2013-09-18 22:03:00,
2013-09-18 17:06:00,76.0,70.0,29.84,ESE,112,9.0,13.0,82,0.00,,,0.19,TxWx,2013-09-18 22:06:00,
2013-09-18 17:08:00,76.0,70.0,29.84,East,90,18.0,18.0,81,0.00,,,0.19,TxWx,2013-09-18 22:08:00,
2013-09-18 17:11:00,76.0,70.0,29.84,ESE,112,16.0,16.0,81,0.00,,,0.19,TxWx,2013-09-18 22:11:00,
2013-09-18 17:13:00,76.0,70.0,29.84,ESE,112,10.0,13.0,81,0.00,,,0.19,TxWx,2013-09-18 22:13:00,
2013-09-18 17:14:00,76.0,70.0,29.84,SE,135,16.0,18.0,81,0.00,,,0.19,TxWx,2013-09-18 22:14:00,
2013-09-18 17:16:00,76.0,70.0,29.84,SE,135,8.0,10.0,82,0.00,,,0.19,TxWx,2013-09-18 22:16:00,
2013-09-18 17:18:00,76.0,70.0,29.84,SSE,157,10.0,11.0,83,0.00,,,0.19,TxWx,2013-09-18 22:18:00,
2013-09-18 17:19:00,76.0,70.0,29.84,SE,135,10.0,11.0,83,0.00,,,0.19,TxWx,2013-09-18 22:19:00,
2013-09-18 17:21:00,76.0,70.0,29.84,SE,135,11.0,11.0,83,0.00,,,0.19,TxWx,2013-09-18 22:21:00,
2013-09-18 17:23:00,76.0,70.0,29.83,SE,135,9.0,9.0,83,0.00,,,0.19,TxWx,2013-09-18 22:23:00,
2013-09-18 17:24:00,76.0,70.0,29.83,ESE,112,8.0,9.0,82,0.00,,,0.19,TxWx,2013-09-18 22:24:00,
2013-09-18 17:26:00,76.0,70.0,29.83,ESE,112,14.0,15.0,82,0.00,,,0.19,TxWx,2013-09-18 22:26:00,
2013-09-18 17:29:00,76.0,70.0,29.83,SE,135,13.0,13.0,82,0.00,,,0.19,TxWx,2013-09-18 22:29:00,
2013-09-18 17:32:00,76.0,70.0,29.84,ESE,112,11.0,11.0,82,0.00,,,0.19,TxWx,2013-09-18 22:32:00,
2013-09-18 17:34:00,76.0,70.0,29.84,ESE,112,13.0,13.0,83,0.00,,,0.19,TxWx,2013-09-18 22:34:00,
2013-09-18 17:35:00,77.0,71.0,29.84,SE,135,10.0,11.0,83,0.00,,,0.19,TxWx,2013-09-18 22:35:00,
2013-09-18 17:37:00,76.0,70.0,29.84,SE,135,13.0,16.0,83,0.00,,,0.19,TxWx,2013-09-18 22:37:00,
2013-09-18 17:40:00,76.0,70.0,29.84,ESE,112,16.0,17.0,83,0.00,,,0.19,TxWx,2013-09-18 22:40:00,
2013-09-18 17:42:00,76.0,70.0,29.84,East,90,14.0,14.0,83,0.00,,,0.19,TxWx,2013-09-18 22:42:00,
2013-09-18 17:45:00,76.0,70.0,29.84,SE,135,13.0,14.0,83,0.00,,,0.19,TxWx,2013-09-18 22:45:00,
2013-09-18 17:47:00,76.0,70.0,29.84,SE,135,11.0,11.0,83,0.00,,,0.19,TxWx,2013-09-18 22:47:00,
2013-09-18 17:50:00,76.0,71.0,29.84,ESE,112,10.0,11.0,84,0.00,,,0.19,TxWx,2013-09-18 22:50:00,
2013-09-18 17:52:00,76.0,71.0,29.84,SE,135,15.0,15.0,84,0.00,,,0.19,TxWx,2013-09-18 22:52:00,
2013-09-18 17:55:00,76.0,71.0,29.83,ESE,112,12.0,12.0,84,0.00,,,0.19,TxWx,2013-09-18 22:55:00,
2013-09-18 17:57:00,76.0,71.0,29.83,ESE,112,13.0,13.0,84,0.00,,,0.19,TxWx,2013-09-18 22:57:00,
2013-09-18 17:58:00,76.0,71.0,29.83,SE,135,12.0,12.0,84,0.00,,,0.19,TxWx,2013-09-18 22:58:00,
2013-09-18 18:00:00,76.0,71.0,29.83,SE,135,12.0,13.0,84,0.00,,,0.19,TxWx,2013-09-18 23:00:00,
2013-09-18 18:02:00,76.0,71.0,29.84,ESE,112,10.0,11.0,84,0.00,,,0.19,TxWx,2013-09-18 23:02:00,
2013-09-18 18:03:00,76.0,71.0,29.83,ESE,112,10.0,10.0,84,0.00,,,0.19,TxWx,2013-09-18 23:03:00,
2013-09-18 18:05:00,76.0,70.0,29.84,ESE,112,11.0,11.0,83,0.00,,,0.19,TxWx,2013-09-18 23:05:00,
2013-09-18 18:07:00,76.0,70.0,29.84,ESE,112,16.0,16.0,83,0.00,,,0.19,TxWx,2013-09-18 23:07:00,
2013-09-18 18:08:00,76.0,70.0,29.84,SE,135,14.0,14.0,83,0.00,,,0.19,TxWx,2013-09-18 23:08:00,
2013-09-18 18:11:00,76.0,71.0,29.83,SE,135,8.0,10.0,84,0.00,,,0.19,TxWx,2013-09-18 23:11:00,
2013-09-18 18:12:00,76.0,71.0,29.83,SE,135,9.0,9.0,84,0.00,,,0.19,TxWx,2013-09-18 23:12:00,
2013-09-18 18:13:00,76.0,70.0,29.84,ESE,112,9.0,9.0,83,0.00,,,0.19,TxWx,2013-09-18 23:13:00,
2013-09-18 18:16:00,76.0,71.0,29.84,SE,135,8.0,10.0,84,0.00,,,0.19,TxWx,2013-09-18 23:16:00,
2013-09-18 18:17:00,76.0,71.0,29.84,ENE,67,11.0,14.0,84,0.00,,,0.19,TxWx,2013-09-18 23:17:00,
2013-09-18 18:19:00,76.0,71.0,29.84,SE,135,11.0,11.0,84,0.00,,,0.19,TxWx,2013-09-18 23:19:00,
2013-09-18 18:22:00,76.0,71.0,29.84,ESE,112,11.0,11.0,84,0.00,,,0.19,TxWx,2013-09-18 23:22:00,
2013-09-18 18:24:00,76.0,71.0,29.84,SE,135,10.0,11.0,84,0.00,,,0.19,TxWx,2013-09-18 23:24:00,
2013-09-18 18:27:00,76.0,71.0,29.84,ESE,112,12.0,12.0,84,0.00,,,0.19,TxWx,2013-09-18 23:27:00,
2013-09-18 18:29:00,76.0,71.0,29.84,SE,135,10.0,11.0,84,0.00,,,0.19,TxWx,2013-09-18 23:29:00,
2013-09-18 18:33:00,75.0,69.0,29.84,SE,135,8.0,8.0,83,0.00,,,0.19,TxWx,2013-09-18 23:33:00,
2013-09-18 18:34:00,75.0,69.0,29.84,ESE,112,11.0,11.0,83,0.00,,,0.19,TxWx,2013-09-18 23:34:00,
2013-09-18 18:35:00,75.0,69.0,29.84,SE,135,11.0,11.0,83,0.00,,,0.19,TxWx,2013-09-18 23:35:00,
2013-09-18 18:38:00,75.0,69.0,29.84,SE,135,8.0,11.0,83,0.00,,,0.19,TxWx,2013-09-18 23:38:00,
2013-09-18 18:40:00,75.0,69.0,29.84,SE,135,13.0,13.0,83,0.00,,,0.19,TxWx,2013-09-18 23:40:00,
2013-09-18 18:43:00,75.0,69.0,29.84,SE,135,11.0,12.0,83,0.00,,,0.19,TxWx,2013-09-18 23:43:00,
2013-09-18 18:45:00,75.0,69.0,29.84,SE,135,8.0,10.0,83,0.00,,,0.19,TxWx,2013-09-18 23:45:00,
2013-09-18 18:48:00,76.0,70.0,29.84,SE,135,12.0,12.0,83,0.00,,,0.19,TxWx,2013-09-18 23:48:00,
2013-09-18 18:50:00,76.0,70.0,29.84,East,90,8.0,8.0,83,0.00,,,0.19,TxWx,2013-09-18 23:50:00,
2013-09-18 18:55:00,75.0,70.0,29.84,ESE,112,11.0,13.0,84,0.00,,,0.19,TxWx,2013-09-18 23:55:00,
2013-09-18 18:56:00,75.0,70.0,29.84,ESE,112,5.0,5.0,84,0.00,,,0.19,TxWx,2013-09-18 23:56:00,
2013-09-18 19:01:00,75.0,70.0,29.84,SE,135,13.0,14.0,84,0.00,,,0.19,TxWx,2013-09-19 00:01:00,
2013-09-18 19:06:00,76.0,71.0,29.84,ESE,112,7.0,8.0,85,0.00,,,0.19,TxWx,2013-09-19 00:06:00,
2013-09-18 19:07:00,76.0,71.0,29.84,SE,135,6.0,8.0,85,0.00,,,0.19,TxWx,2013-09-19 00:07:00,
2013-09-18 19:11:00,75.0,70.0,29.84,ESE,112,9.0,9.0,85,0.00,,,0.19,TxWx,2013-09-19 00:11:00,
2013-09-18 19:12:00,75.0,70.0,29.84,ESE,112,7.0,8.0,85,0.00,,,0.19,TxWx,2013-09-19 00:12:00,
2013-09-18 19:16:00,75.0,70.0,29.84,South,180,10.0,10.0,85,0.00,,,0.19,TxWx,2013-09-19 00:16:00,
2013-09-18 19:17:00,75.0,70.0,29.84,ESE,112,11.0,11.0,85,0.00,,,0.19,TxWx,2013-09-19 00:17:00,
2013-09-18 19:19:00,75.0,70.0,29.84,SE,135,11.0,11.0,85,0.00,,,0.19,TxWx,2013-09-19 00:19:00,
2013-09-18 19:21:00,75.0,70.0,29.84,SE,135,10.0,10.0,84,0.00,,,0.19,TxWx,2013-09-19 00:21:00,
2013-09-18 19:23:00,75.0,69.0,29.84,SE,135,6.0,8.0,83,0.00,,,0.19,TxWx,2013-09-19 00:23:00,
2013-09-18 19:24:00,75.0,69.0,29.84,ESE,112,10.0,10.0,83,0.00,,,0.19,TxWx,2013-09-19 00:24:00,
2013-09-18 19:26:00,75.0,69.0,29.84,ESE,112,11.0,11.0,83,0.00,,,0.19,TxWx,2013-09-19 00:26:00,
2013-09-18 19:28:00,75.0,69.0,29.84,ESE,112,11.0,14.0,82,0.00,,,0.19,TxWx,2013-09-19 00:28:00,
2013-09-18 19:30:00,75.0,69.0,29.84,ESE,112,6.0,10.0,82,0.00,,,0.19,TxWx,2013-09-19 00:30:00,
2013-09-18 19:32:00,75.0,69.0,29.84,SE,135,13.0,14.0,82,0.00,,,0.19,TxWx,2013-09-19 00:32:00,
2013-09-18 19:33:00,75.0,69.0,29.84,SE,135,9.0,9.0,82,0.00,,,0.19,TxWx,2013-09-19 00:33:00,
2013-09-18 19:35:00,75.0,69.0,29.84,SE,135,11.0,11.0,82,0.00,,,0.19,TxWx,2013-09-19 00:35:00,
2013-09-18 19:37:00,75.0,69.0,29.84,SE,135,9.0,9.0,82,0.00,,,0.19,TxWx,2013-09-19 00:37:00,
2013-09-18 19:38:00,75.0,69.0,29.84,ESE,112,8.0,8.0,82,0.00,,,0.19,TxWx,2013-09-19 00:38:00,
2013-09-18 19:40:00,75.0,69.0,29.84,SE,135,11.0,11.0,82,0.00,,,0.19,TxWx,2013-09-19 00:40:00,
2013-09-18 19:42:00,75.0,69.0,29.84,SE,135,6.0,8.0,82,0.00,,,0.19,TxWx,2013-09-19 00:42:00,
2013-09-18 19:43:00,75.0,69.0,29.84,SE,135,8.0,11.0,82,0.00,,,0.19,TxWx,2013-09-19 00:43:00,
2013-09-18 19:46:00,75.0,69.0,29.84,ESE,112,7.0,8.0,81,0.00,,,0.19,TxWx,2013-09-19 00:46:00,
2013-09-18 19:47:00,75.0,69.0,29.84,SE,135,11.0,13.0,82,0.00,,,0.19,TxWx,2013-09-19 00:47:00,
2013-09-18 19:48:00,75.0,69.0,29.84,ESE,112,6.0,6.0,82,0.00,,,0.19,TxWx,2013-09-19 00:48:00,
2013-09-18 19:51:00,75.0,69.0,29.84,East,90,10.0,11.0,82,0.00,,,0.19,TxWx,2013-09-19 00:51:00,
2013-09-18 19:52:00,75.0,69.0,29.84,SSE,157,8.0,8.0,82,0.00,,,0.19,TxWx,2013-09-19 00:52:00,
2013-09-18 19:54:00,75.0,69.0,29.84,ESE,112,9.0,10.0,82,0.00,,,0.19,TxWx,2013-09-19 00:54:00,
2013-09-18 19:56:00,75.0,69.0,29.84,SE,135,10.0,10.0,82,0.00,,,0.19,TxWx,2013-09-19 00:56:00,
2013-09-18 19:57:00,75.0,69.0,29.84,SE,135,10.0,11.0,82,0.00,,,0.19,TxWx,2013-09-19 00:57:00,
2013-09-18 19:59:00,75.0,69.0,29.84,ESE,112,7.0,7.0,82,0.00,,,0.19,TxWx,2013-09-19 00:59:00,
2013-09-18 20:01:00,75.0,69.0,29.84,SE,135,11.0,12.0,82,0.00,,,0.19,TxWx,2013-09-19 01:01:00,
2013-09-18 20:02:00,75.0,69.0,29.84,East,90,9.0,9.0,82,0.00,,,0.19,TxWx,2013-09-19 01:02:00,
2013-09-18 20:04:00,75.0,69.0,29.84,ESE,112,10.0,10.0,82,0.00,,,0.19,TxWx,2013-09-19 01:04:00,
2013-09-18 20:06:00,75.0,69.0,29.84,SE,135,8.0,10.0,82,0.00,,,0.19,TxWx,2013-09-19 01:06:00,
2013-09-18 20:07:00,75.0,69.0,29.84,SE,135,8.0,8.0,82,0.00,,,0.19,TxWx,2013-09-19 01:07:00,
2013-09-18 20:09:00,75.0,69.0,29.84,East,90,7.0,7.0,82,0.00,,,0.19,TxWx,2013-09-19 01:09:00,
2013-09-18 20:12:00,75.0,69.0,29.84,SE,135,10.0,10.0,82,0.00,,,0.19,TxWx,2013-09-19 01:12:00,
2013-09-18 20:14:00,75.0,69.0,29.84,East,90,7.0,7.0,82,0.00,,,0.19,TxWx,2013-09-19 01:14:00,
2013-09-18 20:17:00,75.0,69.0,29.84,ESE,112,10.0,10.0,82,0.00,,,0.19,TxWx,2013-09-19 01:17:00,
2013-09-18 20:19:00,75.0,69.0,29.84,East,90,6.0,8.0,83,0.00,,,0.19,TxWx,2013-09-19 01:19:00,
2013-09-18 20:22:00,75.0,69.0,29.84,SE,135,8.0,9.0,83,0.00,,,0.19,TxWx,2013-09-19 01:22:00,
2013-09-18 20:24:00,75.0,69.0,29.84,SE,135,11.0,11.0,83,0.00,,,0.19,TxWx,2013-09-19 01:24:00,
2013-09-18 20:27:00,75.0,69.0,29.84,SE,135,10.0,11.0,83,0.00,,,0.19,TxWx,2013-09-19 01:27:00,
2013-09-18 20:28:00,75.0,69.0,29.84,SE,135,10.0,10.0,83,0.00,,,0.19,TxWx,2013-09-19 01:28:00,
2013-09-18 20:30:00,75.0,69.0,29.84,SE,135,10.0,10.0,83,0.00,,,0.19,TxWx,2013-09-19 01:30:00,
2013-09-18 20:33:00,75.0,69.0,29.84,ESE,112,6.0,6.0,83,0.00,,,0.19,TxWx,2013-09-19 01:33:00,
2013-09-18 20:35:00,75.0,70.0,29.85,ESE,112,5.0,5.0,84,0.00,,,0.19,TxWx,2013-09-19 01:35:00,
2013-09-18 20:38:00,75.0,70.0,29.84,ESE,112,8.0,9.0,84,0.00,,,0.19,TxWx,2013-09-19 01:38:00,
2013-09-18 20:40:00,75.0,70.0,29.85,SE,135,10.0,11.0,84,0.00,,,0.19,TxWx,2013-09-19 01:40:00,
2013-09-18 20:43:00,75.0,70.0,29.85,ESE,112,8.0,8.0,85,0.00,,,0.19,TxWx,2013-09-19 01:43:00,
2013-09-18 20:45:00,75.0,70.0,29.85,ESE,112,8.0,8.0,85,0.00,,,0.19,TxWx,2013-09-19 01:45:00,
2013-09-18 20:48:00,75.0,70.0,29.85,SE,135,10.0,10.0,85,0.00,,,0.19,TxWx,2013-09-19 01:48:00,
2013-09-18 20:50:00,75.0,70.0,29.85,SE,135,7.0,7.0,85,0.00,,,0.19,TxWx,2013-09-19 01:50:00,
2013-09-18 20:54:00,75.0,70.0,29.85,SE,135,11.0,12.0,85,0.00,,,0.19,TxWx,2013-09-19 01:54:00,
2013-09-18 20:55:00,75.0,70.0,29.85,East,90,9.0,9.0,85,0.00,,,0.19,TxWx,2013-09-19 01:55:00,
2013-09-18 20:59:00,75.0,70.0,29.85,ESE,112,10.0,11.0,85,0.00,,,0.19,TxWx,2013-09-19 01:59:00,
2013-09-18 21:01:00,75.0,70.0,29.85,ESE,112,10.0,10.0,85,0.00,,,0.19,TxWx,2013-09-19 02:01:00,